M I D A S
Marine Information and Data Acquisition System
Tripno 1240 of the Zeeleeuw from 2007-03-27 08:20:43 to 2007-03-27 14:35:07
Back to CruiseResearch ActivitiesStationsMapUnderway DataData graphs

EquipmentUnitsComment
TimeDGPSUTC
LatitudeDGPSDM.mWGS84
LongitudeDGPSDM.mWGS84
TemperatureSBE03/SBE38deg celciusITS90
ConductivitySBE21S/mITS90
SalinitySBE21 Practical Salinity Units
ChlorophylAChelsea fluorimeterg/lCalibrated in Aceton
Missing or incorrect values are displayed as -999
Sea surface data collected by the RV Zeeleeuw from 2007-03-27 07:28:17 to 2007-03-27 14:44:08
                                                                                    Next 1000 lines
Time Latitude Longitude Temperature Conductivity Salinity ChlorophylA
2007-03-27 07:28:28 51°13.602 2°56.099 16.4941 0.053668 0.351478 -2.871232
2007-03-27 07:28:33 51°13.602 2°56.099 16.4873 0.053668 0.351461 -2.871232
2007-03-27 07:28:38 51°13.602 2°56.099 16.4908 0.053668 0.351443 -2.871232
2007-03-27 07:28:42 51°13.602 2°56.099 16.4836 0.053668 0.351443 -2.871232
2007-03-27 07:28:47 51°13.602 2°56.099 16.4822 0.053668 0.351418 -2.871232
2007-03-27 07:28:52 51°13.602 2°56.099 16.4818 0.053668 0.3514 -2.871232
2007-03-27 07:28:57 51°13.602 2°56.099 16.4704 0.053668 0.351374 -2.871232
2007-03-27 07:29:03 51°13.602 2°56.1 16.4768 0.053668 0.351357 -2.871232
2007-03-27 07:29:07 51°13.602 2°56.1 16.473 0.053668 0.351331 -2.871232
2007-03-27 07:29:12 51°13.602 2°56.1 16.4737 0.053668 0.351331 -2.871232
2007-03-27 07:29:18 51°13.602 2°56.1 16.4713 0.053668 0.351305 -2.871232
2007-03-27 07:29:23 51°13.602 2°56.1 16.4684 0.053668 0.351288 -2.871232
2007-03-27 07:29:27 51°13.602 2°56.099 16.4644 0.053668 0.351271 -2.871232
2007-03-27 07:29:33 51°13.602 2°56.099 16.4607 0.053668 0.351254 -2.871232
2007-03-27 07:29:38 51°13.602 2°56.099 16.4573 0.053668 0.351236 -2.871232
2007-03-27 07:29:43 51°13.602 2°56.1 16.4539 0.053668 0.351236 -2.871232
2007-03-27 07:29:47 51°13.602 2°56.1 16.451 0.053668 0.351219 -2.871232
2007-03-27 07:29:53 51°13.602 2°56.1 16.4474 0.053771 0.351908 -2.871232
2007-03-27 07:29:57 51°13.602 2°56.1 16.4454 0.053771 0.35189 -2.871232
2007-03-27 07:30:03 51°13.602 2°56.1 16.4408 0.053771 0.351873 -2.871232
2007-03-27 07:30:07 51°13.602 2°56.1 16.4387 0.053771 0.351864 -2.871232
2007-03-27 07:30:13 51°13.602 2°56.099 16.4349 0.053771 0.351864 -2.871232
2007-03-27 07:30:17 51°13.602 2°56.099 16.4339 0.053771 0.351847 -2.871232
2007-03-27 07:30:23 51°13.602 2°56.099 16.4279 0.053771 0.35183 -2.871232
2007-03-27 07:30:27 51°13.602 2°56.099 16.426 0.053771 0.351804 -2.871232
2007-03-27 07:30:33 51°13.602 2°56.099 16.4189 0.053771 0.351787 -2.871232
2007-03-27 07:30:37 51°13.602 2°56.099 16.4189 0.053771 0.351769 -2.871232
2007-03-27 07:30:43 51°13.602 2°56.099 16.4122 0.053771 0.351769 -2.871232
2007-03-27 07:30:47 51°13.602 2°56.099 16.4081 0.053771 0.351752 -2.871232
2007-03-27 07:30:53 51°13.602 2°56.099 16.4065 0.053771 0.351735 -2.871232
2007-03-27 07:30:57 51°13.602 2°56.099 16.4032 0.053771 0.351718 -2.871232
2007-03-27 07:31:03 51°13.602 2°56.099 16.4007 0.053771 0.3517 -2.871232
2007-03-27 07:31:07 51°13.602 2°56.1 16.3978 0.053771 0.351683 -2.871232
2007-03-27 07:31:13 51°13.602 2°56.1 16.3972 0.053771 0.351683 -2.871232
2007-03-27 07:31:17 51°13.602 2°56.1 16.3971 0.053771 0.351666 -2.871232
2007-03-27 07:31:22 51°13.602 2°56.1 16.395 0.053771 0.351649 -2.871232
2007-03-27 07:31:28 51°13.602 2°56.1 16.3975 0.053771 0.351631 -2.871232
2007-03-27 07:31:33 51°13.602 2°56.1 16.3971 0.053771 0.351606 -2.871232
2007-03-27 07:31:37 51°13.602 2°56.1 16.3961 0.053771 0.351588 -2.871232
2007-03-27 07:31:43 51°13.602 2°56.1 16.3943 0.053771 0.351588 -2.871232
2007-03-27 07:31:47 51°13.602 2°56.1 16.3923 0.053771 0.351563 -2.871232
2007-03-27 07:31:52 51°13.602 2°56.1 16.3911 0.053771 0.351537 -2.871232
2007-03-27 07:31:58 51°13.602 2°56.1 16.3905 0.053771 0.351519 -2.871232
2007-03-27 07:32:03 51°13.602 2°56.1 16.3893 0.053771 0.351494 -2.871232
2007-03-27 07:32:07 51°13.602 2°56.1 16.3893 0.053771 0.351468 -2.871232
2007-03-27 07:32:12 51°13.602 2°56.1 16.3907 0.053771 0.351468 -2.871232
2007-03-27 07:32:18 51°13.603 2°56.1 16.3874 0.053771 0.351451 -2.871232
2007-03-27 07:32:23 51°13.603 2°56.1 16.3873 0.053771 0.351425 -2.871232
2007-03-27 07:32:27 51°13.603 2°56.1 16.3843 0.053771 0.351399 -2.871232
2007-03-27 07:32:33 51°13.603 2°56.1 16.3849 0.053771 0.351382 -2.871232
2007-03-27 07:32:38 51°13.603 2°56.1 16.3793 0.053771 0.351347 -2.871232
2007-03-27 07:32:43 51°13.603 2°56.1 16.3801 0.053771 0.351347 -2.871232
2007-03-27 07:32:47 51°13.603 2°56.1 16.3745 0.053771 0.35133 -2.871232
2007-03-27 07:32:53 51°13.603 2°56.1 16.3789 0.053874 0.352 -2.871232
2007-03-27 07:32:57 51°13.603 2°56.1 16.3777 0.053874 0.351974 -2.871232
2007-03-27 07:33:03 51°13.603 2°56.1 16.3782 0.053874 0.351948 -2.871232
2007-03-27 07:33:07 51°13.603 2°56.1 16.3794 0.053874 0.351931 -2.871232
2007-03-27 07:33:13 51°13.603 2°56.1 16.3807 0.053874 0.351931 -2.871232
2007-03-27 07:33:17 51°13.603 2°56.1 16.3826 0.053874 0.351914 -2.871232
2007-03-27 07:33:23 51°13.603 2°56.1 16.3826 0.053874 0.351897 -2.871232
2007-03-27 07:33:27 51°13.603 2°56.1 16.3876 0.053874 0.351879 -2.871232
2007-03-27 07:33:33 51°13.603 2°56.1 16.3847 0.053874 0.351862 -2.871232
2007-03-27 07:33:37 51°13.603 2°56.1 16.3859 0.053874 0.351845 -2.871232
2007-03-27 07:33:43 51°13.603 2°56.1 16.3853 0.053874 0.351845 -2.871232
2007-03-27 07:33:47 51°13.603 2°56.1 16.3865 0.053874 0.351828 -2.871232
2007-03-27 07:33:53 51°13.603 2°56.1 16.3913 0.053874 0.35181 -2.871232
2007-03-27 07:33:57 51°13.603 2°56.1 16.3965 0.053874 0.351793 -2.871232
2007-03-27 07:34:02 51°13.603 2°56.099 16.3979 0.053874 0.351776 -2.871232
2007-03-27 07:34:08 51°13.603 2°56.099 16.4018 0.053874 0.351759 -2.871232
2007-03-27 07:34:13 51°13.603 2°56.099 16.3961 0.053874 0.351759 -2.871232
2007-03-27 07:34:17 51°13.603 2°56.099 16.4 0.053874 0.351742 -2.871232
2007-03-27 07:34:23 51°13.603 2°56.1 16.3956 0.053874 0.351724 -2.871232
2007-03-27 07:34:27 51°13.603 2°56.1 16.3947 0.053874 0.351707 -2.871232
2007-03-27 07:34:32 51°13.603 2°56.1 16.3922 0.053874 0.351699 -2.871232
2007-03-27 07:34:38 51°13.603 2°56.099 16.3932 0.053874 0.351681 -2.871232
2007-03-27 07:34:43 51°13.603 2°56.099 16.391 0.053874 0.351681 -2.871232
2007-03-27 07:34:47 51°13.603 2°56.099 16.3931 0.053874 0.351664 -2.871232
2007-03-27 07:34:53 51°13.603 2°56.099 16.3902 0.053874 0.351638 -2.871232
2007-03-27 07:34:58 51°13.603 2°56.099 16.3922 0.053874 0.351621 -2.871232
2007-03-27 07:35:03 51°13.603 2°56.099 16.3898 0.053874 0.351604 -2.871232
2007-03-27 07:35:07 51°13.603 2°56.099 16.3889 0.053874 0.351578 -2.871232
2007-03-27 07:35:13 51°13.603 2°56.099 16.3868 0.053874 0.351578 -2.871232
2007-03-27 07:35:18 51°13.603 2°56.099 16.3862 0.053874 0.351561 -2.871232
2007-03-27 07:35:23 51°13.603 2°56.099 16.3832 0.053874 0.351552 -2.871232
2007-03-27 07:35:27 51°13.603 2°56.099 16.3805 0.053874 0.351535 -2.871232
2007-03-27 07:35:33 51°13.602 2°56.099 16.3801 0.053874 0.351518 -2.871232
2007-03-27 07:35:37 51°13.603 2°56.099 16.376 0.053874 0.351492 -2.871232
2007-03-27 07:35:43 51°13.603 2°56.099 16.3745 0.053874 0.351492 -2.871232
2007-03-27 07:35:47 51°13.603 2°56.099 16.3722 0.053874 0.351475 -2.871232
2007-03-27 07:35:53 51°13.603 2°56.1 16.3705 0.053874 0.351449 -2.871232
2007-03-27 07:35:57 51°13.603 2°56.1 16.3708 0.053977 0.352127 -2.871232
2007-03-27 07:36:03 51°13.603 2°56.1 16.3732 0.053977 0.352101 -2.871232
2007-03-27 07:36:07 51°13.603 2°56.1 16.3723 0.053977 0.352084 -2.871232
2007-03-27 07:36:13 51°13.603 2°56.1 16.3736 0.053977 0.352084 -2.871232
2007-03-27 07:36:17 51°13.603 2°56.1 16.3712 0.053977 0.352066 -2.871232
2007-03-27 07:36:23 51°13.602 2°56.099 16.3723 0.053977 0.352049 -2.871232
2007-03-27 07:36:28 51°13.603 2°56.099 16.3698 0.053977 0.352032 -2.871232
2007-03-27 07:36:33 51°13.603 2°56.099 16.3706 0.053977 0.352015 -2.871232
2007-03-27 07:36:37 51°13.603 2°56.099 16.3689 0.053977 0.351998 -2.871232
2007-03-27 07:36:42 51°13.602 2°56.099 16.3705 0.053977 0.351998 -2.871232
2007-03-27 07:36:47 51°13.603 2°56.099 16.3654 0.053977 0.35198 -2.871232
2007-03-27 07:36:53 51°13.603 2°56.099 16.367 0.053977 0.351963 -2.871232
2007-03-27 07:36:57 51°13.603 2°56.099 16.365 0.053977 0.351946 -2.871232
2007-03-27 07:37:02 51°13.603 2°56.099 16.3661 0.053977 0.351929 -2.871232
2007-03-27 07:37:07 51°13.603 2°56.1 16.3648 0.053977 0.351912 -2.871232
2007-03-27 07:37:13 51°13.603 2°56.1 16.3656 0.053977 0.351912 -2.871232
2007-03-27 07:37:18 51°13.603 2°56.1 16.3637 0.053977 0.351886 -2.871232
2007-03-27 07:37:23 51°13.603 2°56.099 16.3626 0.053977 0.351869 -2.871232
2007-03-27 07:37:27 51°13.603 2°56.099 16.363 0.053977 0.351843 -2.871232
2007-03-27 07:37:33 51°13.603 2°56.099 16.3643 0.053977 0.351826 -2.871232
2007-03-27 07:37:38 51°13.603 2°56.099 16.3639 0.053977 0.351809 -2.871232
2007-03-27 07:37:43 51°13.603 2°56.099 16.3651 0.053977 0.351809 -2.871232
2007-03-27 07:37:47 51°13.603 2°56.099 16.3638 0.053977 0.351791 -2.871232
2007-03-27 07:37:53 51°13.603 2°56.099 16.3622 0.053977 0.351774 -2.871232
2007-03-27 07:37:57 51°13.603 2°56.099 16.3613 0.053977 0.351757 -2.871232
2007-03-27 07:38:03 51°13.603 2°56.099 16.3624 0.053977 0.35174 -2.871232
2007-03-27 07:38:07 51°13.603 2°56.099 16.3595 0.053977 0.351723 -2.871232
2007-03-27 07:38:13 51°13.603 2°56.099 16.3589 0.053977 0.351723 -2.871232
2007-03-27 07:38:17 51°13.603 2°56.099 16.3603 0.053977 0.351697 -2.871232
2007-03-27 07:38:23 51°13.603 2°56.099 16.3622 0.053977 0.35168 -2.871232
2007-03-27 07:38:27 51°13.603 2°56.099 16.3629 0.053977 0.351663 -2.871232
2007-03-27 07:38:33 51°13.603 2°56.099 16.3668 0.053977 0.351645 -2.871232
2007-03-27 07:38:37 51°13.603 2°56.099 16.3646 0.053977 0.351628 -2.871232
2007-03-27 07:38:43 51°13.603 2°56.099 16.3643 0.053977 0.351628 -2.871232
2007-03-27 07:38:48 51°13.602 2°56.099 16.3635 0.053977 0.351611 -2.871232
2007-03-27 07:38:53 51°13.602 2°56.099 16.3679 0.053977 0.351594 -2.871232
2007-03-27 07:38:57 51°13.602 2°56.099 16.3653 0.054079 0.35227 -2.871232
2007-03-27 07:39:03 51°13.602 2°56.099 16.3668 0.053977 0.35156 -2.871232
2007-03-27 07:39:08 51°13.602 2°56.099 16.3656 0.054079 0.352236 -2.871232
2007-03-27 07:39:13 51°13.602 2°56.099 16.3666 0.054079 0.352236 -2.871232
2007-03-27 07:39:17 51°13.602 2°56.099 16.3659 0.054079 0.352227 -2.871232
2007-03-27 07:39:23 51°13.602 2°56.099 16.3668 0.054079 0.35221 -2.871232
2007-03-27 07:39:27 51°13.602 2°56.099 16.363 0.054079 0.352193 -2.871232
2007-03-27 07:39:33 51°13.602 2°56.099 16.3607 0.054079 0.352176 -2.871232
2007-03-27 07:39:37 51°13.602 2°56.099 16.3561 0.054079 0.35215 -2.871232
2007-03-27 07:39:42 51°13.602 2°56.099 16.3575 0.054079 0.35215 -2.871232
2007-03-27 07:39:47 51°13.602 2°56.099 16.3571 0.054079 0.352133 -2.871232
2007-03-27 07:39:52 51°13.602 2°56.099 16.3542 0.054079 0.352107 -2.871232
2007-03-27 07:39:57 51°13.602 2°56.099 16.3552 0.054079 0.35209 -2.871232
2007-03-27 07:40:03 51°13.602 2°56.099 16.3507 0.054079 0.352064 -2.871232
2007-03-27 07:40:07 51°13.602 2°56.099 16.3525 0.054079 0.352047 -2.871232
2007-03-27 07:40:13 51°13.602 2°56.099 16.3503 0.054079 0.352047 -2.871232
2007-03-27 07:40:18 51°13.602 2°56.099 16.3458 0.054079 0.35203 -2.871232
2007-03-27 07:40:23 51°13.602 2°56.099 16.3351 0.054079 0.352004 -2.871232
2007-03-27 07:40:27 51°13.602 2°56.099 16.3351 0.054079 0.351987 -2.871232
2007-03-27 07:40:33 51°13.602 2°56.099 16.3329 0.054079 0.35197 -2.871232
2007-03-27 07:40:38 51°13.602 2°56.099 16.3413 0.054079 0.351944 -2.871232
2007-03-27 07:40:43 51°13.602 2°56.099 16.3391 0.054079 0.351944 -2.871232
2007-03-27 07:40:47 51°13.602 2°56.099 16.3418 0.054079 0.351927 -2.871232
2007-03-27 07:40:53 51°13.602 2°56.099 16.3404 0.054079 0.35191 -2.871232
2007-03-27 07:40:57 51°13.602 2°56.099 16.3414 0.054079 0.351884 -2.871232
2007-03-27 07:41:03 51°13.602 2°56.099 16.3399 0.054079 0.351867 -2.871232
2007-03-27 07:41:07 51°13.602 2°56.099 16.343 0.054079 0.35185 -2.871232
2007-03-27 07:41:13 51°13.602 2°56.099 16.3422 0.054079 0.35185 -2.871232
2007-03-27 07:41:17 51°13.602 2°56.099 16.3439 0.054079 0.351833 -2.871232
2007-03-27 07:41:23 51°13.602 2°56.1 16.3428 0.054182 0.352508 -2.871232
2007-03-27 07:41:27 51°13.602 2°56.1 16.3434 0.054079 0.351798 -2.871232
2007-03-27 07:41:33 51°13.602 2°56.1 16.3435 0.054079 0.351773 -2.871232
2007-03-27 07:41:37 51°13.602 2°56.1 16.3423 0.054079 0.351755 -2.871232
2007-03-27 07:41:43 51°13.602 2°56.1 16.3411 0.054079 0.351755 -2.871232
2007-03-27 07:41:48 51°13.602 2°56.1 16.3401 0.054079 0.351738 -2.871232
2007-03-27 07:41:53 51°13.602 2°56.1 16.3375 0.054182 0.352414 -2.871232
2007-03-27 07:41:57 51°13.602 2°56.1 16.3328 0.054182 0.352388 -2.871232
2007-03-27 07:42:03 51°13.602 2°56.1 16.3332 0.054182 0.352371 -2.871232
2007-03-27 07:42:08 51°13.602 2°56.1 16.3253 0.054182 0.352354 -2.871232
2007-03-27 07:42:13 51°13.602 2°56.1 16.3289 0.054182 0.352354 -2.871232
2007-03-27 07:42:17 51°13.602 2°56.1 16.3304 0.054182 0.352337 -2.871232
2007-03-27 07:42:22 51°13.602 2°56.1 16.3354 0.054182 0.352311 -2.871232
2007-03-27 07:42:27 51°13.602 2°56.1 16.3357 0.054182 0.352294 -2.871232
2007-03-27 07:42:32 51°13.602 2°56.1 16.334 0.054182 0.352268 -2.871232
2007-03-27 07:42:37 51°13.602 2°56.1 16.3361 0.054182 0.352251 -2.871232
2007-03-27 07:42:43 51°13.602 2°56.1 16.3329 0.054182 0.352251 -2.871232
2007-03-27 07:42:47 51°13.602 2°56.1 16.336 0.054182 0.352234 -2.871232
2007-03-27 07:42:52 51°13.602 2°56.1 16.3355 0.054182 0.352216 -2.871232
2007-03-27 07:42:58 51°13.602 2°56.1 16.3372 0.054182 0.352199 -2.871232
2007-03-27 07:43:03 51°13.602 2°56.1 16.3353 0.054182 0.352182 -2.871232
2007-03-27 07:43:07 51°13.602 2°56.1 16.3392 0.054182 0.352165 -2.871232
2007-03-27 07:43:13 51°13.602 2°56.1 16.3385 0.054182 0.352165 -2.871232
2007-03-27 07:43:18 51°13.602 2°56.1 16.341 0.054182 0.352148 -2.871232
2007-03-27 07:43:23 51°13.602 2°56.1 16.3419 0.054182 0.352131 -2.871232
2007-03-27 07:43:27 51°13.602 2°56.1 16.3428 0.054182 0.352114 -2.871232
2007-03-27 07:43:33 51°13.602 2°56.1 16.3413 0.054182 0.352096 -2.871232
2007-03-27 07:43:37 51°13.602 2°56.1 16.3417 0.054182 0.352071 -2.871232
2007-03-27 07:43:43 51°13.602 2°56.1 16.3405 0.054182 0.352071 -2.871232
2007-03-27 07:43:47 51°13.602 2°56.1 16.3412 0.054182 0.352054 -2.871232
2007-03-27 07:43:53 51°13.602 2°56.1 16.3399 0.054182 0.352036 -2.871232
2007-03-27 07:43:57 51°13.602 2°56.1 16.3392 0.054182 0.352011 -2.871232
2007-03-27 07:44:03 51°13.602 2°56.1 16.3332 0.054285 0.352677 -2.871232
2007-03-27 07:44:07 51°13.602 2°56.1 16.3347 0.054182 0.351968 -2.871232
2007-03-27 07:44:13 51°13.602 2°56.1 16.3359 0.054182 0.351968 -2.871232
2007-03-27 07:44:17 51°13.602 2°56.1 16.3353 0.054182 0.351951 -2.871232
2007-03-27 07:44:22 51°13.602 2°56.1 16.3339 0.054285 0.352625 -2.871232
2007-03-27 07:44:27 51°13.602 2°56.1 16.3367 0.054285 0.352608 -2.871232
2007-03-27 07:44:33 51°13.602 2°56.1 16.3358 0.054285 0.352591 -2.871232
2007-03-27 07:44:37 51°13.602 2°56.1 16.3394 0.054285 0.352574 -2.871232
2007-03-27 07:44:43 51°13.602 2°56.1 16.3406 0.054285 0.352574 -2.871232
2007-03-27 07:44:47 51°13.602 2°56.1 16.3434 0.054285 0.352548 -2.871232
2007-03-27 07:44:53 51°13.602 2°56.1 16.3433 0.054285 0.35254 -2.871232
2007-03-27 07:44:57 51°13.602 2°56.1 16.3435 0.054285 0.352523 -2.871232
2007-03-27 07:45:03 51°13.602 2°56.1 16.3429 0.054285 0.352497 -2.871232
2007-03-27 07:45:07 51°13.602 2°56.1 16.3421 0.054285 0.35248 -2.871232
2007-03-27 07:45:12 51°13.602 2°56.1 16.3439 0.054285 0.35248 -2.871232
2007-03-27 07:45:18 51°13.602 2°56.1 16.3428 0.054285 0.352454 -2.871232
2007-03-27 07:45:23 51°13.602 2°56.1 16.3425 0.054285 0.352437 -2.871232
2007-03-27 07:45:27 51°13.603 2°56.1 16.3427 0.054285 0.352411 -2.871232
2007-03-27 07:45:33 51°13.603 2°56.1 16.3411 0.054285 0.352394 -2.871232
2007-03-27 07:45:38 51°13.603 2°56.1 16.3416 0.054285 0.352368 -2.871232
2007-03-27 07:45:43 51°13.603 2°56.1 16.3405 0.054285 0.352368 -2.871232
2007-03-27 07:45:47 51°13.603 2°56.1 16.3409 0.054285 0.352343 -2.871232
2007-03-27 07:45:53 51°13.603 2°56.1 16.3411 0.054285 0.352326 -2.871232
2007-03-27 07:45:57 51°13.603 2°56.1 16.3392 0.054285 0.3523 -2.871232
2007-03-27 07:46:03 51°13.603 2°56.1 16.3393 0.054285 0.352274 -2.871232
2007-03-27 07:46:07 51°13.603 2°56.1 16.3373 0.054285 0.352249 -2.871232
2007-03-27 07:46:13 51°13.603 2°56.1 16.334 0.054285 0.352249 -2.871232
2007-03-27 07:46:17 51°13.603 2°56.1 16.3323 0.054285 0.352231 -2.871232
2007-03-27 07:46:23 51°13.603 2°56.1 16.3323 0.054285 0.352214 -2.871232
2007-03-27 07:46:27 51°13.602 2°56.1 16.3325 0.054285 0.352197 -2.871232
2007-03-27 07:46:33 51°13.603 2°56.1 16.3333 0.054285 0.35218 -2.871232
2007-03-27 07:46:37 51°13.603 2°56.1 16.3362 0.054285 0.352163 -2.871232
2007-03-27 07:46:43 51°13.603 2°56.1 16.3371 0.054285 0.352163 -2.871232
2007-03-27 07:46:47 51°13.603 2°56.1 16.3345 0.054285 0.352146 -2.871232
2007-03-27 07:46:53 51°13.603 2°56.1 16.3349 0.054285 0.352129 -2.871232
2007-03-27 07:46:57 51°13.603 2°56.1 16.3343 0.054285 0.352112 -2.871232
2007-03-27 07:47:03 51°13.603 2°56.1 16.3364 0.054388 0.352785 -2.871232
2007-03-27 07:47:07 51°13.603 2°56.1 16.3376 0.054285 0.352077 -2.871232
2007-03-27 07:47:13 51°13.603 2°56.1 16.3385 0.054285 0.352077 -2.871232
2007-03-27 07:47:17 51°13.603 2°56.1 16.3397 0.054388 0.352751 -2.871232
2007-03-27 07:47:22 51°13.603 2°56.1 16.3389 0.054388 0.352734 -2.871232
2007-03-27 07:47:28 51°13.603 2°56.1 16.3407 0.054388 0.352708 -2.871232
2007-03-27 07:47:32 51°13.603 2°56.1 16.3409 0.054388 0.352691 -2.871232
2007-03-27 07:47:38 51°13.603 2°56.1 16.342 0.054388 0.352665 -2.871232
2007-03-27 07:47:43 51°13.603 2°56.1 16.3423 0.054388 0.352665 -2.871232
2007-03-27 07:47:47 51°13.603 2°56.1 16.3427 0.054388 0.352657 -2.871232
2007-03-27 07:47:53 51°13.603 2°56.1 16.3421 0.054388 0.352631 -2.871232
2007-03-27 07:47:58 51°13.603 2°56.1 16.3412 0.054388 0.352614 -2.871232
2007-03-27 07:48:03 51°13.603 2°56.1 16.3433 0.054388 0.352597 -2.871232
2007-03-27 07:48:07 51°13.603 2°56.1 16.3548 0.054388 0.35258 -2.871232
2007-03-27 07:48:13 51°13.603 2°56.1 16.3575 0.054388 0.35258 -2.871232
2007-03-27 07:48:18 51°13.603 2°56.1 16.3591 0.054388 0.352563 -2.871232
2007-03-27 07:48:23 51°13.603 2°56.1 16.3597 0.054388 0.352554 -2.871232
2007-03-27 07:48:27 51°13.603 2°56.1 16.3594 0.054388 0.352537 -2.871232
2007-03-27 07:48:33 51°13.603 2°56.1 16.3564 0.054388 0.352528 -2.871232
2007-03-27 07:48:38 51°13.603 2°56.1 16.3562 0.054388 0.352511 -2.871232
2007-03-27 07:48:42 51°13.603 2°56.1 16.3551 0.054388 0.352511 -2.871232
2007-03-27 07:48:47 51°13.603 2°56.101 16.3528 0.054388 0.352494 -2.871232
2007-03-27 07:48:52 51°13.603 2°56.101 16.3506 0.054388 0.352469 -2.871232
2007-03-27 07:48:57 51°13.603 2°56.101 16.3495 0.054388 0.352452 -2.871232
2007-03-27 07:49:02 51°13.603 2°56.101 16.3498 0.054388 0.352434 -2.871232
2007-03-27 07:49:07 51°13.603 2°56.1 16.3502 0.054388 0.352417 -2.871232
2007-03-27 07:49:11 51°13.603 2°56.1 16.3462 0.054388 0.352417 -2.871232
2007-03-27 07:49:16 51°13.603 2°56.1 16.3472 0.054388 0.3524 -2.871232
2007-03-27 07:49:22 51°13.603 2°56.1 16.3456 0.054388 0.352383 -2.871232
2007-03-27 07:49:27 51°13.603 2°56.1 16.3493 0.054388 0.352366 -2.871232
2007-03-27 07:49:32 51°13.603 2°56.1 16.3478 0.054388 0.352349 -2.871232
2007-03-27 07:49:37 51°13.603 2°56.1 16.3485 0.054388 0.352332 -2.871232
2007-03-27 07:49:41 51°13.603 2°56.1 16.3458 0.054388 0.352332 -2.871232
2007-03-27 07:49:47 51°13.603 2°56.1 16.346 0.054388 0.352315 -2.871232
2007-03-27 07:49:51 51°13.603 2°56.1 16.3449 0.054388 0.352298 -2.871232
2007-03-27 07:49:56 51°13.603 2°56.1 16.3455 0.054388 0.352289 -2.871232
2007-03-27 07:50:01 51°13.603 2°56.1 16.3453 0.054388 0.352272 -2.871232
2007-03-27 07:50:06 51°13.603 2°56.1 16.3493 0.054388 0.352255 -2.871232
2007-03-27 07:50:11 51°13.604 2°56.1 16.3548 0.054388 0.352255 -2.871232
2007-03-27 07:50:16 51°13.604 2°56.1 16.3573 0.054388 0.352247 -2.871232
2007-03-27 07:50:20 51°13.604 2°56.1 16.3542 0.054491 0.352919 -2.871232
2007-03-27 07:50:25 51°13.604 2°56.1 16.3511 0.054491 0.352902 -2.871232
2007-03-27 07:50:31 51°13.604 2°56.1 16.35 0.054491 0.352885 -2.871232
2007-03-27 07:50:35 51°13.604 2°56.101 16.349 0.054491 0.352868 -2.871232
2007-03-27 07:50:40 51°13.604 2°56.1 16.3511 0.054491 0.352868 -2.871232
2007-03-27 07:50:45 51°13.604 2°56.1 16.3525 0.054491 0.352851 -2.871232
2007-03-27 07:50:50 51°13.604 2°56.1 16.352 0.054491 0.352834 -2.871232
2007-03-27 07:50:55 51°13.604 2°56.1 16.3572 0.054491 0.352816 -2.871232
2007-03-27 07:51:00 51°13.604 2°56.1 16.3544 0.054491 0.352799 -2.871232
2007-03-27 07:51:05 51°13.603 2°56.1 16.3573 0.054491 0.352782 -2.871232
2007-03-27 07:51:10 51°13.603 2°56.1 16.3562 0.054491 0.352782 -2.871232
2007-03-27 07:51:15 51°13.603 2°56.1 16.3544 0.054491 0.352765 -2.871232
2007-03-27 07:51:20 51°13.603 2°56.1 16.3538 0.054491 0.352748 -2.871232
2007-03-27 07:51:24 51°13.603 2°56.1 16.353 0.054491 0.352731 -2.871232
2007-03-27 07:51:29 51°13.603 2°56.1 16.3524 0.054491 0.352714 -2.871232
2007-03-27 07:51:34 51°13.603 2°56.1 16.3521 0.054491 0.352705 -2.871232
2007-03-27 07:51:40 51°13.603 2°56.1 16.3535 0.054491 0.352705 -2.871232
2007-03-27 07:51:45 51°13.603 2°56.1 16.3569 0.054491 0.352688 -2.871232
2007-03-27 07:51:51 51°13.603 2°56.1 16.3572 0.054491 0.35268 -2.871232
2007-03-27 07:51:56 51°13.603 2°56.1 16.3601 0.054491 0.352663 -2.871232
2007-03-27 07:52:01 51°13.603 2°56.1 16.3619 0.054491 0.352646 -2.871232
2007-03-27 07:52:06 51°13.603 2°56.1 16.3632 0.054491 0.352629 -2.871232
2007-03-27 07:52:11 51°13.603 2°56.1 16.3568 0.054491 0.352629 -2.871232
2007-03-27 07:52:15 51°13.603 2°56.1 16.3625 0.054491 0.352611 -2.871232
2007-03-27 07:52:20 51°13.603 2°56.1 16.3619 0.054491 0.352594 -2.871232
2007-03-27 07:52:25 51°13.603 2°56.1 16.3584 0.054491 0.352577 -2.871232
2007-03-27 07:52:30 51°13.603 2°56.1 16.3589 0.054491 0.35256 -2.871232
2007-03-27 07:52:35 51°13.603 2°56.1 16.3605 0.054491 0.352543 -2.871232
2007-03-27 07:52:40 51°13.603 2°56.1 16.3605 0.054491 0.352543 -2.871232
2007-03-27 07:52:45 51°13.603 2°56.1 16.3621 0.054491 0.352526 -2.871232
2007-03-27 07:52:50 51°13.603 2°56.1 16.3617 0.054491 0.352501 -2.871232
2007-03-27 07:52:56 51°13.603 2°56.1 16.3604 0.054491 0.352483 -2.871232
2007-03-27 07:53:01 51°13.603 2°56.1 16.3596 0.054491 0.352466 -2.871232
2007-03-27 07:53:05 51°13.603 2°56.1 16.3609 0.054491 0.352449 -2.871232
2007-03-27 07:53:11 51°13.603 2°56.1 16.3606 0.054491 0.352449 -2.871232
2007-03-27 07:53:16 51°13.603 2°56.1 16.3601 0.054491 0.352432 -2.871232
2007-03-27 07:53:22 51°13.603 2°56.1 16.36 0.054594 0.353104 -2.871232
2007-03-27 07:53:27 51°13.603 2°56.1 16.3603 0.054594 0.353087 -2.871232
2007-03-27 07:53:31 51°13.603 2°56.1 16.355 0.054594 0.35307 -2.871232
2007-03-27 07:53:37 51°13.603 2°56.1 16.355 0.054594 0.353053 -2.871232
2007-03-27 07:53:42 51°13.603 2°56.1 16.3513 0.054594 0.353053 -2.871232
2007-03-27 07:53:47 51°13.603 2°56.1 16.3536 0.054491 0.352347 -2.871232
2007-03-27 07:53:52 51°13.602 2°56.099 16.3537 0.054594 0.353018 -2.871232
2007-03-27 07:53:56 51°13.601 2°56.099 16.3567 0.054594 0.353001 -2.871232
2007-03-27 07:54:03 51°13.602 2°56.099 16.3581 0.054594 0.352984 -2.871232
2007-03-27 07:54:07 51°13.602 2°56.099 16.3593 0.054594 0.352967 -2.871232
2007-03-27 07:54:12 51°13.602 2°56.1 16.3577 0.054594 0.352967 -2.871232
2007-03-27 07:54:17 51°13.603 2°56.1 16.3582 0.054594 0.35295 -2.871232
2007-03-27 07:54:22 51°13.603 2°56.1 16.3598 0.054594 0.352933 -2.871232
2007-03-27 07:54:27 51°13.604 2°56.1 16.362 0.054594 0.352916 -2.871232
2007-03-27 07:54:32 51°13.604 2°56.1 16.3604 0.054594 0.352899 -2.871232
2007-03-27 07:54:37 51°13.604 2°56.1 16.3611 0.054594 0.352882 -2.871232
2007-03-27 07:54:42 51°13.604 2°56.1 16.3608 0.054594 0.352882 -2.871232
2007-03-27 07:54:47 51°13.604 2°56.1 16.3626 0.054594 0.352873 -2.871232
2007-03-27 07:54:52 51°13.604 2°56.1 16.3632 0.054594 0.352856 -2.871232
2007-03-27 07:54:57 51°13.604 2°56.1 16.3645 0.054594 0.352839 -2.871232
2007-03-27 07:55:02 51°13.604 2°56.1 16.3647 0.054594 0.352822 -2.871232
2007-03-27 07:55:07 51°13.604 2°56.1 16.3669 0.054594 0.352805 -2.871232
2007-03-27 07:55:12 51°13.604 2°56.1 16.3669 0.054594 0.352805 -2.871232
2007-03-27 07:55:17 51°13.604 2°56.101 16.3694 0.054594 0.352788 -2.871232
2007-03-27 07:55:21 51°13.603 2°56.1 16.3684 0.054594 0.352771 -2.871232
2007-03-27 07:55:27 51°13.603 2°56.1 16.3715 0.054594 0.352754 -2.871232
2007-03-27 07:55:32 51°13.602 2°56.1 16.3722 0.054594 0.352737 -2.871232
2007-03-27 07:55:37 51°13.602 2°56.1 16.3765 0.054594 0.35272 -2.871232
2007-03-27 07:55:42 51°13.602 2°56.1 16.3693 0.054594 0.35272 -2.871232
2007-03-27 07:55:47 51°13.602 2°56.1 16.3694 0.054594 0.352703 -2.871232
2007-03-27 07:55:51 51°13.602 2°56.1 16.3703 0.054594 0.352686 -2.871232
2007-03-27 07:55:56 51°13.602 2°56.1 16.3719 0.054594 0.352669 -2.871232
2007-03-27 07:56:01 51°13.602 2°56.1 16.3742 0.054594 0.352652 -2.871232
2007-03-27 07:56:06 51°13.602 2°56.1 16.3736 0.054594 0.352635 -2.871232
2007-03-27 07:56:11 51°13.602 2°56.1 16.3785 0.054594 0.352635 -2.871232
2007-03-27 07:56:16 51°13.602 2°56.1 16.3826 0.054594 0.352618 -2.871232
2007-03-27 07:56:21 51°13.602 2°56.101 16.3858 0.054594 0.352601 -2.871232
2007-03-27 07:56:26 51°13.602 2°56.101 16.3922 0.054594 0.352584 -2.871232
2007-03-27 07:56:31 51°13.602 2°56.1 16.393 0.054697 0.353246 -2.871232
2007-03-27 07:56:36 51°13.602 2°56.1 16.3953 0.054697 0.353229 -2.871232
2007-03-27 07:56:41 51°13.601 2°56.1 16.3931 0.054697 0.353229 -2.871232
2007-03-27 07:56:46 51°13.601 2°56.1 16.3907 0.054594 0.352524 -2.871232
2007-03-27 07:56:51 51°13.602 2°56.1 16.3894 0.054697 0.353194 -2.871232
2007-03-27 07:56:56 51°13.602 2°56.1 16.3881 0.054697 0.353177 -2.871232
2007-03-27 07:57:00 51°13.602 2°56.1 16.3892 0.054697 0.353152 -2.871232
2007-03-27 07:57:06 51°13.602 2°56.1 16.3902 0.054697 0.353135 -2.871232
2007-03-27 07:57:10 51°13.602 2°56.1 16.3922 0.054697 0.353135 -2.871232
2007-03-27 07:57:15 51°13.602 2°56.1 16.393 0.054697 0.353126 -2.871232
2007-03-27 07:57:20 51°13.602 2°56.1 16.3934 0.054697 0.353109 -2.871232
2007-03-27 07:57:25 51°13.602 2°56.1 16.3868 0.054697 0.353092 -2.871232
2007-03-27 07:57:30 51°13.602 2°56.1 16.3887 0.054697 0.353075 -2.871232
2007-03-27 07:57:35 51°13.602 2°56.1 16.3867 0.054697 0.353058 -2.871232
2007-03-27 07:57:39 51°13.602 2°56.1 16.3884 0.054697 0.353058 -2.871232
2007-03-27 07:57:44 51°13.602 2°56.1 16.3855 0.054697 0.353041 -2.871232
2007-03-27 07:57:49 51°13.602 2°56.1 16.3841 0.054697 0.353024 -2.871232
2007-03-27 07:57:55 51°13.602 2°56.1 16.3823 0.054697 0.353007 -2.871232
2007-03-27 07:58:01 51°13.602 2°56.1 16.3802 0.054697 0.35299 -2.871232
2007-03-27 07:58:06 51°13.602 2°56.1 16.3786 0.054697 0.352973 -2.871232
2007-03-27 07:58:11 51°13.602 2°56.1 16.3782 0.054697 0.352973 -2.871232
2007-03-27 07:58:17 51°13.602 2°56.1 16.3774 0.054697 0.352956 -2.871232
2007-03-27 07:58:23 51°13.602 2°56.101 16.379 0.054697 0.352939 -2.871232
2007-03-27 07:58:27 51°13.602 2°56.101 16.3804 0.054697 0.352922 -2.871232
2007-03-27 07:58:32 51°13.602 2°56.1 16.3791 0.054697 0.352905 -2.871232
2007-03-27 07:58:37 51°13.602 2°56.1 16.3784 0.054697 0.352888 -2.871232
2007-03-27 07:58:43 51°13.602 2°56.1 16.3766 0.054697 0.352888 -2.871232
2007-03-27 07:58:47 51°13.602 2°56.1 16.3753 0.054697 0.352871 -2.871232
2007-03-27 07:58:52 51°13.602 2°56.1 16.3783 0.054697 0.352854 -2.871232
2007-03-27 07:58:58 51°13.602 2°56.1 16.3797 0.054697 0.352837 -2.871232
2007-03-27 07:59:02 51°13.602 2°56.1 16.3833 0.054697 0.35282 -2.871232
2007-03-27 07:59:07 51°13.602 2°56.1 16.3823 0.054697 0.352803 -2.871232
2007-03-27 07:59:12 51°13.602 2°56.1 16.3841 0.054697 0.352803 -2.871232
2007-03-27 07:59:17 51°13.602 2°56.1 16.3856 0.054697 0.352786 -2.871232
2007-03-27 07:59:22 51°13.602 2°56.1 16.3857 0.054697 0.352769 -2.871232
2007-03-27 07:59:27 51°13.602 2°56.1 16.3909 0.054697 0.352752 -2.871232
2007-03-27 07:59:32 51°13.602 2°56.1 16.3909 0.054697 0.352735 -2.871232
2007-03-27 07:59:37 51°13.602 2°56.1 16.3879 0.054697 0.352718 -2.871232
2007-03-27 07:59:43 51°13.602 2°56.1 16.3878 0.054697 0.352718 -2.871232
2007-03-27 07:59:47 51°13.602 2°56.101 16.3882 0.054697 0.352701 -2.871232
2007-03-27 07:59:52 51°13.602 2°56.101 16.3889 0.0548 0.35337 -2.871232
2007-03-27 07:59:57 51°13.602 2°56.1 16.3943 0.0548 0.353353 -2.871232
2007-03-27 08:00:02 51°13.602 2°56.101 16.399 0.0548 0.353345 -2.871232
2007-03-27 08:00:07 51°13.602 2°56.101 16.3987 0.0548 0.353328 -2.871232
2007-03-27 08:00:11 51°13.602 2°56.101 16.4 0.0548 0.353328 -2.871232
2007-03-27 08:00:16 51°13.602 2°56.101 16.4018 0.0548 0.35331 -2.871232
2007-03-27 08:00:21 51°13.602 2°56.101 16.4023 0.0548 0.353293 -2.871232
2007-03-27 08:00:26 51°13.602 2°56.101 16.4037 0.0548 0.353276 -2.871232
2007-03-27 08:00:31 51°13.602 2°56.101 16.4042 0.0548 0.353259 -2.871232
2007-03-27 08:00:36 51°13.602 2°56.101 16.4023 0.0548 0.353242 -2.871232
2007-03-27 08:00:41 51°13.602 2°56.101 16.4054 0.0548 0.353242 -2.871232
2007-03-27 08:00:46 51°13.602 2°56.101 16.4045 0.0548 0.353225 -2.871232
2007-03-27 08:00:50 51°13.602 2°56.101 16.4045 0.0548 0.353208 -2.871232
2007-03-27 08:00:56 51°13.602 2°56.101 16.4034 0.0548 0.353191 -2.871232
2007-03-27 08:01:01 51°13.602 2°56.101 16.4056 0.0548 0.353174 -2.871232
2007-03-27 08:01:06 51°13.602 2°56.101 16.4055 0.0548 0.353157 -2.871232
2007-03-27 08:01:11 51°13.602 2°56.101 16.4089 0.0548 0.353157 -2.871232
2007-03-27 08:01:16 51°13.602 2°56.101 16.409 0.0548 0.353149 -2.871232
2007-03-27 08:01:21 51°13.602 2°56.101 16.4118 0.0548 0.353132 -2.871232
2007-03-27 08:01:26 51°13.602 2°56.101 16.41 0.0548 0.353115 -2.871232
2007-03-27 08:01:31 51°13.602 2°56.101 16.4142 0.0548 0.353106 -2.871232
2007-03-27 08:01:36 51°13.602 2°56.101 16.412 0.0548 0.353089 -2.871232
2007-03-27 08:01:41 51°13.602 2°56.101 16.4142 0.0548 0.353089 -2.871232
2007-03-27 08:01:46 51°13.602 2°56.101 16.4114 0.0548 0.353072 -2.871232
2007-03-27 08:01:51 51°13.602 2°56.101 16.4102 0.0548 0.353055 -2.871232
2007-03-27 08:01:56 51°13.602 2°56.101 16.4077 0.0548 0.353038 -2.871232
2007-03-27 08:02:00 51°13.602 2°56.101 16.4036 0.0548 0.353021 -2.871232
2007-03-27 08:02:05 51°13.602 2°56.101 16.4005 0.0548 0.353004 -2.871232
2007-03-27 08:02:11 51°13.602 2°56.101 16.3984 0.0548 0.353004 -2.871232
2007-03-27 08:02:15 51°13.602 2°56.101 16.4001 0.0548 0.352987 -2.871232
2007-03-27 08:02:20 51°13.602 2°56.101 16.3962 0.0548 0.35297 -2.871232
2007-03-27 08:02:25 51°13.602 2°56.101 16.3996 0.0548 0.352953 -2.871232
2007-03-27 08:02:31 51°13.602 2°56.101 16.3924 0.0548 0.352936 -2.871232
2007-03-27 08:02:36 51°13.602 2°56.101 16.3933 0.0548 0.352919 -2.871232
2007-03-27 08:02:41 51°13.602 2°56.101 16.3916 0.0548 0.352919 -2.871232
2007-03-27 08:02:46 51°13.602 2°56.101 16.394 0.0548 0.352902 -2.871232
2007-03-27 08:02:51 51°13.602 2°56.101 16.3914 0.054903 0.353571 -2.871232
2007-03-27 08:02:56 51°13.602 2°56.101 16.393 0.0548 0.352868 -2.871232
2007-03-27 08:03:01 51°13.602 2°56.101 16.3943 0.054903 0.353537 -2.871232
2007-03-27 08:03:05 51°13.602 2°56.101 16.3945 0.054903 0.35352 -2.871232
2007-03-27 08:03:10 51°13.602 2°56.101 16.3972 0.054903 0.35352 -2.871232
2007-03-27 08:03:15 51°13.602 2°56.101 16.3983 0.054903 0.353503 -2.871232
2007-03-27 08:03:20 51°13.602 2°56.101 16.4005 0.054903 0.353486 -2.871232
2007-03-27 08:03:25 51°13.602 2°56.101 16.4015 0.054903 0.353469 -2.871232
2007-03-27 08:03:30 51°13.602 2°56.101 16.4002 0.054903 0.353443 -2.871232
2007-03-27 08:03:35 51°13.602 2°56.101 16.4021 0.054903 0.353426 -2.871232
2007-03-27 08:03:39 51°13.602 2°56.101 16.4016 0.054903 0.353426 -2.871232
2007-03-27 08:03:44 51°13.602 2°56.101 16.4055 0.054903 0.353409 -2.871232
2007-03-27 08:03:49 51°13.602 2°56.101 16.4063 0.054903 0.353401 -2.871232
2007-03-27 08:03:54 51°13.602 2°56.101 16.4086 0.054903 0.353384 -2.871232
2007-03-27 08:03:59 51°13.602 2°56.101 16.4087 0.054903 0.353367 -2.871232
2007-03-27 08:04:04 51°13.602 2°56.101 16.4091 0.054903 0.35335 -2.871232
2007-03-27 08:04:09 51°13.602 2°56.101 16.411 0.054903 0.35335 -2.871232
2007-03-27 08:04:14 51°13.602 2°56.101 16.4094 0.054903 0.353333 -2.871232
2007-03-27 08:04:19 51°13.602 2°56.101 16.4064 0.054903 0.353307 -2.871232
2007-03-27 08:04:24 51°13.602 2°56.101 16.4056 0.054903 0.35329 -2.871232
2007-03-27 08:04:29 51°13.602 2°56.101 16.4074 0.054903 0.353273 -2.871232
2007-03-27 08:04:34 51°13.602 2°56.101 16.4085 0.054903 0.353248 -2.871232
2007-03-27 08:04:39 51°13.602 2°56.101 16.4095 0.054903 0.353248 -2.871232
2007-03-27 08:04:44 51°13.602 2°56.101 16.4099 0.054903 0.353231 -2.871232
2007-03-27 08:04:48 51°13.602 2°56.101 16.4152 0.054903 0.353214 -2.871232
2007-03-27 08:04:54 51°13.602 2°56.101 16.4172 0.054903 0.353197 -2.871232
2007-03-27 08:04:59 51°13.602 2°56.101 16.42 0.054903 0.353188 -2.871232
2007-03-27 08:05:04 51°13.602 2°56.101 16.421 0.054903 0.353622 -2.871232
2007-03-27 08:05:09 51°13.602 2°56.101 16.4215 0.054903 0.353622 -2.871232
2007-03-27 08:05:15 51°13.602 2°56.101 16.4188 0.055314 0.35183 -2.871232
2007-03-27 08:05:20 51°13.602 2°56.101 16.4134 0.055314 0.351206 -2.871232
2007-03-27 08:05:25 51°13.602 2°56.101 16.4128 0.055314 0.349347 -2.871232
2007-03-27 08:05:30 51°13.602 2°56.101 16.4095 0.055211 0.346914 -2.871232
2007-03-27 08:05:35 51°13.602 2°56.101 16.4065 0.055314 0.345308 -2.871232
2007-03-27 08:05:40 51°13.602 2°56.101 16.4043 0.055314 0.345308 -2.871232
2007-03-27 08:05:45 51°13.602 2°56.101 16.4041 0.055314 0.343763 -2.871232
2007-03-27 08:05:49 51°13.6 2°56.101 16.4028 0.055314 0.339657 -2.871232
2007-03-27 08:05:54 51°13.598 2°56.1 16.4046 0.055417 0.340751 -2.871232
2007-03-27 08:05:59 51°13.597 2°56.1 16.4047 0.055417 0.34444 -2.871232
2007-03-27 08:06:04 51°13.596 2°56.099 16.408 0.055417 0.346294 -2.871232
2007-03-27 08:06:09 51°13.596 2°56.099 16.4067 0.055417 0.346294 -2.871232
2007-03-27 08:06:14 51°13.596 2°56.099 16.4099 0.05552 0.346171 -2.871232
2007-03-27 08:06:19 51°13.597 2°56.099 16.4135 0.05552 0.345372 -2.871232
2007-03-27 08:06:24 51°13.597 2°56.1 16.4145 0.055623 0.345523 -2.871232
2007-03-27 08:06:29 51°13.598 2°56.1 16.4145 0.055726 0.345491 -2.871232
2007-03-27 08:06:34 51°13.599 2°56.1 16.4133 0.055726 0.345324 -2.871232
2007-03-27 08:06:39 51°13.599 2°56.1 16.4137 0.055726 0.345324 -2.871232
2007-03-27 08:06:44 51°13.597 2°56.1 16.4153 0.055829 0.345935 -2.871232
2007-03-27 08:06:49 51°13.596 2°56.099 16.4191 0.055829 0.346079 -2.871232
2007-03-27 08:06:54 51°13.596 2°56.099 16.4205 0.055932 0.346913 -2.871232
2007-03-27 08:06:59 51°13.595 2°56.099 16.4217 0.055932 0.346594 -2.871232
2007-03-27 08:07:04 51°13.596 2°56.099 16.4206 0.056034 0.346505 -2.871232
2007-03-27 08:07:08 51°13.596 2°56.099 16.422 0.056034 0.346505 -2.871232
2007-03-27 08:07:14 51°13.597 2°56.099 16.4222 0.056034 0.346235 -2.871232
2007-03-27 08:07:19 51°13.598 2°56.099 16.4235 0.056034 0.346251 -2.871232
2007-03-27 08:07:24 51°13.598 2°56.1 16.4225 0.056137 0.3469 -2.871232
2007-03-27 08:07:29 51°13.598 2°56.1 16.4253 0.056137 0.346932 -2.871232
2007-03-27 08:07:34 51°13.598 2°56.1 16.4225 0.05624 0.347613 -2.871232
2007-03-27 08:07:40 51°13.598 2°56.1 16.4257 0.05624 0.347613 -2.871232
2007-03-27 08:07:45 51°13.598 2°56.1 16.4222 0.05624 0.347582 -2.871232
2007-03-27 08:07:51 51°13.598 2°56.1 16.4265 0.056343 0.348183 -2.871232
2007-03-27 08:07:56 51°13.598 2°56.1 16.4243 0.056343 0.348079 -2.871232
2007-03-27 08:08:02 51°13.598 2°56.1 16.4258 0.056343 0.347928 -2.871232
2007-03-27 08:08:07 51°13.598 2°56.1 16.423 0.056446 0.348529 -2.871232
2007-03-27 08:08:11 51°13.599 2°56.1 16.4248 0.056446 0.348529 -2.871232
2007-03-27 08:08:16 51°13.599 2°56.1 16.4245 0.056446 0.348561 -2.871232
2007-03-27 08:08:21 51°13.599 2°56.1 16.4248 0.056446 0.348601 -2.871232
2007-03-27 08:08:26 51°13.599 2°56.1 16.4246 0.056549 0.349338 -2.871232
2007-03-27 08:08:31 51°13.598 2°56.1 16.4267 0.056549 0.349425 -2.871232
2007-03-27 08:08:36 51°13.598 2°56.1 16.427 0.056549 0.349434 -2.871232
2007-03-27 08:08:41 51°13.599 2°56.1 16.4302 0.056549 0.349434 -2.871232
2007-03-27 08:08:45 51°13.599 2°56.1 16.4299 0.056549 0.349409 -2.871232
2007-03-27 08:08:50 51°13.6 2°56.1 16.4286 0.056549 0.349385 -2.871232
2007-03-27 08:08:55 51°13.6 2°56.1 16.4333 0.056652 0.350035 -2.871232
2007-03-27 08:09:00 51°13.601 2°56.1 16.4303 0.056652 0.350035 -2.871232
2007-03-27 08:09:05 51°13.601 2°56.1 16.4321 0.056652 0.350035 -2.871232
2007-03-27 08:09:10 51°13.602 2°56.1 16.4241 0.056652 0.350035 -2.871232
2007-03-27 08:09:15 51°13.6 2°56.1 16.425 0.056652 0.350035 -2.871232
2007-03-27 08:09:20 51°13.599 2°56.099 16.4233 0.056652 0.350035 -2.871232
2007-03-27 08:09:25 51°13.599 2°56.099 16.4212 0.056755 0.350692 -2.871232
2007-03-27 08:09:30 51°13.599 2°56.099 16.4132 0.056755 0.350708 -2.871232
2007-03-27 08:09:35 51°13.599 2°56.099 16.415 0.056755 0.350716 -2.871232
2007-03-27 08:09:40 51°13.599 2°56.099 16.4164 0.056755 0.350716 -2.871232
2007-03-27 08:09:45 51°13.599 2°56.1 16.4151 0.056755 0.350732 -2.871232
2007-03-27 08:09:50 51°13.599 2°56.1 16.4162 0.056755 0.35074 -2.871232
2007-03-27 08:09:55 51°13.599 2°56.1 16.4113 0.056755 0.350748 -2.871232
2007-03-27 08:10:00 51°13.6 2°56.1 16.4125 0.056858 0.351405 -2.871232
2007-03-27 08:10:05 51°13.6 2°56.1 16.4111 0.056858 0.351413 -2.871232
2007-03-27 08:10:10 51°13.6 2°56.099 16.4084 0.056858 0.351413 -2.871232
2007-03-27 08:10:15 51°13.599 2°56.099 16.4005 0.056858 0.351405 -2.871232
2007-03-27 08:10:21 51°13.599 2°56.099 16.4001 0.056858 0.351405 -2.871232
2007-03-27 08:10:27 51°13.599 2°56.099 16.4017 0.056858 0.351389 -2.871232
2007-03-27 08:10:31 51°13.599 2°56.099 16.4039 0.056858 0.351365 -2.871232
2007-03-27 08:10:36 51°13.6 2°56.099 16.401 0.056858 0.351341 -2.871232
2007-03-27 08:10:41 51°13.6 2°56.099 16.4001 0.056858 0.351341 -2.871232
2007-03-27 08:10:46 51°13.6 2°56.099 16.4016 0.056961 0.351966 -2.871232
2007-03-27 08:10:51 51°13.6 2°56.099 16.3981 0.056858 0.351285 -2.871232
2007-03-27 08:10:56 51°13.6 2°56.099 16.3956 0.056961 0.351918 -2.871232
2007-03-27 08:11:01 51°13.6 2°56.099 16.3967 0.056961 0.351902 -2.871232
2007-03-27 08:11:07 51°13.601 2°56.099 16.3882 0.056961 0.351886 -2.871232
2007-03-27 08:11:12 51°13.602 2°56.099 16.3885 0.056961 0.351886 -2.871232
2007-03-27 08:11:18 51°13.602 2°56.1 16.386 0.056961 0.351869 -2.871232
2007-03-27 08:11:23 51°13.602 2°56.1 16.3888 0.056961 0.351853 -2.871232
2007-03-27 08:11:27 51°13.602 2°56.1 16.3905 0.056961 0.351837 -2.871232
2007-03-27 08:11:32 51°13.602 2°56.1 16.3935 0.056961 0.351821 -2.871232
2007-03-27 08:11:38 51°13.602 2°56.1 16.3944 0.056961 0.351805 -2.871232
2007-03-27 08:11:43 51°13.602 2°56.1 16.3959 0.056961 0.351805 -2.871232
2007-03-27 08:11:47 51°13.602 2°56.1 16.397 0.056961 0.351805 -2.871232
2007-03-27 08:11:52 51°13.602 2°56.1 16.3989 0.056961 0.351805 -2.871232
2007-03-27 08:11:58 51°13.601 2°56.1 16.401 0.056961 0.351805 -2.871232
2007-03-27 08:12:02 51°13.601 2°56.1 16.3993 0.057064 0.352454 -2.871232
2007-03-27 08:12:07 51°13.602 2°56.1 16.4031 0.056961 0.351789 -2.871232
2007-03-27 08:12:12 51°13.602 2°56.1 16.4021 0.056961 0.351789 -2.871232
2007-03-27 08:12:17 51°13.602 2°56.1 16.4055 0.056961 0.351781 -2.871232
2007-03-27 08:12:22 51°13.603 2°56.1 16.4059 0.056961 0.351765 -2.871232
2007-03-27 08:12:27 51°13.603 2°56.1 16.4105 0.057064 0.352422 -2.871232
2007-03-27 08:12:33 51°13.603 2°56.1 16.4109 0.057064 0.352414 -2.871232
2007-03-27 08:12:37 51°13.602 2°56.1 16.4136 0.057064 0.352406 -2.871232
2007-03-27 08:12:43 51°13.601 2°56.1 16.4144 0.057064 0.352406 -2.871232
2007-03-27 08:12:47 51°13.601 2°56.099 16.4181 0.057064 0.352389 -2.871232
2007-03-27 08:12:52 51°13.6 2°56.099 16.4195 0.057064 0.352381 -2.871232
2007-03-27 08:12:57 51°13.6 2°56.099 16.4224 0.057064 0.352373 -2.871232
2007-03-27 08:13:02 51°13.6 2°56.099 16.4214 0.057064 0.352365 -2.871232
2007-03-27 08:13:07 51°13.6 2°56.099 16.4252 0.057064 0.352357 -2.871232
2007-03-27 08:13:13 51°13.6 2°56.099 16.425 0.057064 0.352357 -2.871232
2007-03-27 08:13:18 51°13.601 2°56.099 16.4303 0.057064 0.352341 -2.871232
2007-03-27 08:13:22 51°13.6 2°56.099 16.429 0.057064 0.352333 -2.871232
2007-03-27 08:13:27 51°13.6 2°56.099 16.429 0.057064 0.352325 -2.871232
2007-03-27 08:13:33 51°13.601 2°56.099 16.4291 0.057064 0.352317 -2.871232
2007-03-27 08:13:37 51°13.601 2°56.099 16.4286 0.057064 0.352309 -2.871232
2007-03-27 08:13:43 51°13.601 2°56.099 16.4274 0.057064 0.352309 -2.871232
2007-03-27 08:13:47 51°13.601 2°56.099 16.4261 0.057064 0.352301 -2.871232
2007-03-27 08:13:52 51°13.601 2°56.099 16.4204 0.057064 0.352293 -2.871232
2007-03-27 08:13:57 51°13.602 2°56.099 16.4221 0.057064 0.352277 -2.871232
2007-03-27 08:14:02 51°13.602 2°56.099 16.4225 0.057064 0.352269 -2.871232
2007-03-27 08:14:07 51°13.602 2°56.1 16.4268 0.057064 0.352252 -2.871232
2007-03-27 08:14:12 51°13.602 2°56.1 16.4243 0.057064 0.352252 -2.871232
2007-03-27 08:14:16 51°13.602 2°56.1 16.4255 0.057064 0.352244 -2.871232
2007-03-27 08:14:22 51°13.602 2°56.1 16.4265 0.057064 0.352236 -2.871232
2007-03-27 08:14:27 51°13.602 2°56.1 16.429 0.057064 0.352228 -2.871232
2007-03-27 08:14:32 51°13.602 2°56.1 16.4308 0.057167 0.352877 -2.871232
2007-03-27 08:14:37 51°13.603 2°56.1 16.4373 0.057064 0.352212 -2.871232
2007-03-27 08:14:43 51°13.602 2°56.1 16.441 0.057064 0.352212 -2.871232
2007-03-27 08:14:47 51°13.602 2°56.1 16.4425 0.057064 0.352204 -2.871232
2007-03-27 08:14:52 51°13.602 2°56.1 16.4424 0.057167 0.352845 -2.871232
2007-03-27 08:14:57 51°13.602 2°56.1 16.4419 0.057167 0.352828 -2.871232
2007-03-27 08:15:02 51°13.602 2°56.1 16.4419 0.057167 0.352812 -2.871232
2007-03-27 08:15:07 51°13.602 2°56.1 16.442 0.057167 0.352804 -2.871232
2007-03-27 08:15:12 51°13.602 2°56.1 16.4392 0.057167 0.352804 -2.871232
2007-03-27 08:15:17 51°13.602 2°56.1 16.4405 0.057167 0.352796 -2.871232
2007-03-27 08:15:21 51°13.602 2°56.1 16.4418 0.057167 0.352796 -2.871232
2007-03-27 08:15:26 51°13.601 2°56.099 16.4446 0.057167 0.352796 -2.871232
2007-03-27 08:15:31 51°13.601 2°56.099 16.444 0.057167 0.35278 -2.871232
2007-03-27 08:15:36 51°13.601 2°56.099 16.4431 0.057167 0.352772 -2.871232
2007-03-27 08:15:41 51°13.601 2°56.099 16.438 0.057167 0.352772 -2.871232
2007-03-27 08:15:46 51°13.601 2°56.1 16.433 0.057167 0.352756 -2.871232
2007-03-27 08:15:51 51°13.601 2°56.1 16.4341 0.057167 0.35274 -2.871232
2007-03-27 08:15:56 51°13.601 2°56.1 16.4377 0.057167 0.352724 -2.871232
2007-03-27 08:16:01 51°13.601 2°56.1 16.4407 0.057167 0.352707 -2.871232
2007-03-27 08:16:06 51°13.601 2°56.1 16.4413 0.057167 0.352691 -2.871232
2007-03-27 08:16:10 51°13.601 2°56.1 16.4492 0.057167 0.352691 -2.871232
2007-03-27 08:16:16 51°13.6 2°56.099 16.4611 0.057167 0.352683 -2.871232
2007-03-27 08:16:21 51°13.599 2°56.099 16.4673 0.057167 0.352675 -2.871232
2007-03-27 08:16:26 51°13.599 2°56.099 16.4623 0.057167 0.352667 -2.871232
2007-03-27 08:16:31 51°13.599 2°56.099 16.4594 0.057167 0.352659 -2.871232
2007-03-27 08:16:36 51°13.599 2°56.099 16.4543 0.057167 0.352643 -2.871232
2007-03-27 08:16:41 51°13.599 2°56.099 16.4535 0.057167 0.352643 -2.871232
2007-03-27 08:16:46 51°13.6 2°56.099 16.4497 0.057167 0.352635 -2.871232
2007-03-27 08:16:51 51°13.6 2°56.099 16.45 0.057167 0.352619 -2.871232
2007-03-27 08:16:56 51°13.601 2°56.1 16.4509 0.057167 0.352611 -2.871232
2007-03-27 08:17:01 51°13.601 2°56.1 16.4527 0.057167 0.352603 -2.871232
2007-03-27 08:17:05 51°13.601 2°56.1 16.4541 0.057167 0.352595 -2.871232
2007-03-27 08:17:10 51°13.602 2°56.1 16.4549 0.057167 0.352595 -2.871232
2007-03-27 08:17:15 51°13.602 2°56.1 16.455 0.057167 0.352587 -2.871232
2007-03-27 08:17:20 51°13.601 2°56.1 16.4567 0.057167 0.352578 -2.871232
2007-03-27 08:17:25 51°13.601 2°56.1 16.4566 0.057167 0.35257 -2.871232
2007-03-27 08:17:30 51°13.601 2°56.1 16.4579 0.057167 0.35257 -2.871232
2007-03-27 08:17:35 51°13.601 2°56.1 16.4593 0.057167 0.352562 -2.871232
2007-03-27 08:17:41 51°13.601 2°56.1 16.4591 0.057167 0.352562 -2.871232
2007-03-27 08:17:45 51°13.601 2°56.1 16.4604 0.057167 0.352554 -2.871232
2007-03-27 08:17:51 51°13.601 2°56.1 16.4596 0.057167 0.352538 -2.871232
2007-03-27 08:17:55 51°13.601 2°56.1 16.462 0.057167 0.35253 -2.871232
2007-03-27 08:18:00 51°13.601 2°56.1 16.4619 0.057167 0.352522 -2.871232
2007-03-27 08:18:05 51°13.601 2°56.1 16.4639 0.057167 0.352506 -2.871232
2007-03-27 08:18:10 51°13.6 2°56.1 16.4683 0.057167 0.352506 -2.871232
2007-03-27 08:18:16 51°13.6 2°56.1 16.467 0.057167 0.352498 -2.871232
2007-03-27 08:18:21 51°13.6 2°56.1 16.4668 0.057269 0.353138 -2.871232
2007-03-27 08:18:26 51°13.6 2°56.1 16.4671 0.057167 0.352474 -2.871232
2007-03-27 08:18:30 51°13.6 2°56.1 16.452 0.057269 0.353114 -2.871232
2007-03-27 08:18:35 51°13.6 2°56.1 16.4633 0.057167 0.35245 -2.871232
2007-03-27 08:18:40 51°13.601 2°56.1 16.4629 0.057167 0.35245 -2.871232
2007-03-27 08:18:45 51°13.601 2°56.1 16.4628 0.057166 0.352434 -2.871232
2007-03-27 08:18:50 51°13.601 2°56.1 16.4665 0.057166 0.352426 -2.871232
2007-03-27 08:18:55 51°13.601 2°56.1 16.4676 0.057269 0.353073 -2.871232
2007-03-27 08:19:00 51°13.601 2°56.1 16.4718 0.057269 0.353065 -2.871232
2007-03-27 08:19:05 51°13.601 2°56.1 16.4734 0.057269 0.353065 -2.871232
2007-03-27 08:19:10 51°13.601 2°56.1 16.4738 0.057269 0.353065 -2.871232
2007-03-27 08:19:15 51°13.601 2°56.1 16.4747 0.057269 0.353057 -2.871232
2007-03-27 08:19:19 51°13.601 2°56.1 16.4748 0.057269 0.353049 -2.871232
2007-03-27 08:19:24 51°13.601 2°56.1 16.4768 0.057269 0.353041 -2.871232
2007-03-27 08:19:29 51°13.601 2°56.1 16.4787 0.057269 0.353033 -2.871232
2007-03-27 08:19:34 51°13.601 2°56.1 16.4776 0.057269 0.353025 -2.871232
2007-03-27 08:19:39 51°13.601 2°56.1 16.4763 0.057269 0.353025 -2.871232
2007-03-27 08:19:44 51°13.601 2°56.1 16.4769 0.057269 0.353017 -2.871232
2007-03-27 08:19:49 51°13.601 2°56.1 16.4791 0.057269 0.353001 -2.871232
2007-03-27 08:19:54 51°13.601 2°56.1 16.484 0.057269 0.352993 -2.871232
2007-03-27 08:19:59 51°13.601 2°56.1 16.4815 0.057269 0.352977 -2.871232
2007-03-27 08:20:04 51°13.601 2°56.1 16.4795 0.057269 0.352968 -2.871232
2007-03-27 08:20:09 51°13.601 2°56.1 16.4786 0.057269 0.352968 -2.871232
2007-03-27 08:20:14 51°13.601 2°56.1 16.4787 0.057269 0.352952 -2.871232
2007-03-27 08:20:19 51°13.601 2°56.1 16.4788 0.057269 0.352944 -2.871232
2007-03-27 08:20:24 51°13.601 2°56.1 16.4802 0.057269 0.352936 -2.871232
2007-03-27 08:20:29 51°13.601 2°56.1 16.4813 0.057269 0.35292 -2.871232
2007-03-27 08:20:34 51°13.601 2°56.1 16.4804 0.057269 0.352912 -2.871232
2007-03-27 08:20:39 51°13.601 2°56.1 16.4774 0.057269 0.352912 -2.871232
2007-03-27 08:20:44 51°13.602 2°56.1 16.4752 0.057269 0.352904 -2.871232
2007-03-27 08:20:49 51°13.602 2°56.1 16.4735 0.057269 0.352888 -2.871232
2007-03-27 08:20:54 51°13.602 2°56.1 16.4634 0.057269 0.35288 -2.871232
2007-03-27 08:20:59 51°13.602 2°56.099 16.4627 0.057269 0.352864 -2.871232
2007-03-27 08:21:04 51°13.602 2°56.098 16.4237 0.057269 0.352848 -2.871232
2007-03-27 08:21:09 51°13.602 2°56.097 16.3416 0.057269 0.352848 -2.871232
2007-03-27 08:21:14 51°13.603 2°56.095 16.4031 0.057269 0.35284 -2.871232
2007-03-27 08:21:19 51°13.604 2°56.092 16.3824 0.057269 0.352824 -2.871232
2007-03-27 08:21:24 51°13.605 2°56.089 16.4122 0.057269 0.352824 -2.871232
2007-03-27 08:21:29 51°13.606 2°56.085 16.4373 0.057269 0.352815 -2.871232
2007-03-27 08:21:35 51°13.607 2°56.08 16.4552 0.057269 0.352815 -2.871232
2007-03-27 08:21:41 51°13.609 2°56.074 16.4722 0.057269 0.352815 -2.871232
2007-03-27 08:21:46 51°13.611 2°56.068 16.4406 0.057269 0.352807 -2.871232
2007-03-27 08:21:52 51°13.612 2°56.061 16.4857 0.057269 0.352799 -2.871232
2007-03-27 08:21:58 51°13.614 2°56.054 16.455 0.057269 0.352791 -2.871232
2007-03-27 08:22:02 51°13.615 2°56.049 16.4826 0.057269 0.352783 -2.871232
2007-03-27 08:22:07 51°13.617 2°56.042 16.493 0.057269 0.352775 -2.871232
2007-03-27 08:22:13 51°13.619 2°56.034 16.5177 0.057269 0.352775 -2.871232
2007-03-27 08:22:18 51°13.621 2°56.026 16.5193 0.057269 0.352775 -2.871232
2007-03-27 08:22:22 51°13.623 2°56.02 16.5329 0.057269 0.352767 -2.871232
2007-03-27 08:22:27 51°13.624 2°56.013 16.5345 0.057269 0.352759 -2.871232
2007-03-27 08:22:33 51°13.627 2°56.003 16.4843 0.057269 0.352743 -2.871232
2007-03-27 08:22:38 51°13.629 2°55.995 16.5101 0.057269 0.352727 -2.871232
2007-03-27 08:22:43 51°13.632 2°55.987 16.5034 0.057269 0.352727 -2.871232
2007-03-27 08:22:47 51°13.633 2°55.98 16.5107 0.057269 0.352711 -2.871232
2007-03-27 08:22:52 51°13.636 2°55.971 16.5081 0.057269 0.352687 -2.871232
2007-03-27 08:22:58 51°13.64 2°55.96 16.5131 0.057269 0.352671 -2.871232
2007-03-27 08:23:03 51°13.642 2°55.951 16.5157 0.057269 0.352655 -2.871232
2007-03-27 08:23:07 51°13.645 2°55.944 16.5203 0.057269 0.352638 -2.871232
2007-03-27 08:23:12 51°13.648 2°55.935 16.5289 0.057269 0.352638 -2.871232
2007-03-27 08:23:18 51°13.652 2°55.924 16.5396 0.057269 0.352622 -2.871232
2007-03-27 08:23:23 51°13.655 2°55.914 16.5329 0.057269 0.352614 -2.871232
2007-03-27 08:23:27 51°13.658 2°55.907 16.5383 0.057269 0.352598 -2.871232
2007-03-27 08:23:33 51°13.662 2°55.896 16.5839 0.057372 0.353245 -2.871232
2007-03-27 08:23:37 51°13.664 2°55.889 16.5914 0.057269 0.352582 -2.871232
2007-03-27 08:23:43 51°13.668 2°55.878 16.5821 0.057269 0.352582 -2.871232
2007-03-27 08:23:47 51°13.671 2°55.872 16.569 0.057269 0.352566 -2.871232
2007-03-27 08:23:52 51°13.674 2°55.863 16.5619 0.057372 0.353213 -2.871232
2007-03-27 08:23:58 51°13.677 2°55.854 16.5495 0.057269 0.35255 -2.871232
2007-03-27 08:24:02 51°13.679 2°55.848 16.5484 0.057269 0.352542 -2.871232
2007-03-27 08:24:07 51°13.681 2°55.84 16.5406 0.057372 0.353181 -2.871232
2007-03-27 08:24:12 51°13.683 2°55.832 16.54 0.057372 0.353181 -2.871232
2007-03-27 08:24:17 51°13.686 2°55.825 16.5332 0.057372 0.353173 -2.871232
2007-03-27 08:24:22 51°13.688 2°55.817 16.5306 0.057269 0.35251 -2.871232
2007-03-27 08:24:27 51°13.69 2°55.81 16.5264 0.057372 0.353157 -2.871232
2007-03-27 08:24:32 51°13.692 2°55.803 16.5274 0.057372 0.353149 -2.871232
2007-03-27 08:24:37 51°13.694 2°55.796 16.5254 0.057372 0.353132 -2.871232
2007-03-27 08:24:42 51°13.696 2°55.789 16.5264 0.057372 0.353132 -2.871232
2007-03-27 08:24:47 51°13.697 2°55.782 16.5221 0.057372 0.353124 -2.871232
2007-03-27 08:24:52 51°13.699 2°55.776 16.5234 0.057372 0.353116 -2.871232
2007-03-27 08:24:57 51°13.7 2°55.77 16.5256 0.057372 0.353108 -2.871232
2007-03-27 08:25:02 51°13.701 2°55.764 16.4788 0.057372 0.353092 -2.871232
2007-03-27 08:25:07 51°13.703 2°55.758 16.5176 0.057372 0.353084 -2.871232
2007-03-27 08:25:11 51°13.703 2°55.753 16.4805 0.057372 0.353084 -2.871232
2007-03-27 08:25:16 51°13.704 2°55.748 16.4988 0.057372 0.353068 -2.871232
2007-03-27 08:25:21 51°13.705 2°55.742 16.5176 0.057372 0.35306 -2.871232
2007-03-27 08:25:26 51°13.705 2°55.737 16.5605 0.057372 0.353044 -2.871232
2007-03-27 08:25:31 51°13.706 2°55.732 16.541 0.057372 0.353036 -2.871232
2007-03-27 08:25:36 51°13.706 2°55.728 16.5218 0.057372 0.353028 -2.871232
2007-03-27 08:25:41 51°13.707 2°55.725 16.5615 0.057372 0.353028 -2.871232
2007-03-27 08:25:45 51°13.707 2°55.723 16.5412 0.057372 0.353012 -2.871232
2007-03-27 08:25:50 51°13.707 2°55.721 16.5589 0.057372 0.353004 -2.871232
2007-03-27 08:25:55 51°13.707 2°55.719 16.5329 0.057372 0.353004 -2.871232
2007-03-27 08:26:00 51°13.708 2°55.717 16.5302 0.057372 0.352996 -2.871232
2007-03-27 08:26:05 51°13.708 2°55.716 16.5315 0.057372 0.352996 -2.871232
2007-03-27 08:26:09 51°13.709 2°55.715 16.5471 0.057372 0.352996 -2.871232
2007-03-27 08:26:15 51°13.709 2°55.713 16.5493 0.057372 0.352988 -2.871232
2007-03-27 08:26:19 51°13.709 2°55.713 16.5561 0.057372 0.35298 -2.871232
2007-03-27 08:26:24 51°13.71 2°55.712 16.5685 0.057372 0.352972 -2.871232
2007-03-27 08:26:29 51°13.71 2°55.712 16.5536 0.057372 0.352955 -2.871232
2007-03-27 08:26:34 51°13.711 2°55.712 16.5652 0.057372 0.352947 -2.871232
2007-03-27 08:26:39 51°13.712 2°55.712 16.5485 0.057372 0.352947 -2.871232
2007-03-27 08:26:44 51°13.713 2°55.712 16.546 0.057372 0.352931 -2.871232
2007-03-27 08:26:49 51°13.714 2°55.712 16.5442 0.057372 0.352923 -2.871232
2007-03-27 08:26:54 51°13.715 2°55.712 16.5458 0.057372 0.352915 -2.871232
2007-03-27 08:26:59 51°13.716 2°55.712 16.5397 0.057372 0.352899 -2.871232
2007-03-27 08:27:04 51°13.717 2°55.712 16.5394 0.057372 0.352891 -2.871232
2007-03-27 08:27:09 51°13.719 2°55.712 16.5531 0.057372 0.352891 -2.871232
2007-03-27 08:27:14 51°13.72 2°55.712 16.5624 0.057372 0.352875 -2.871232
2007-03-27 08:27:19 51°13.722 2°55.712 16.5653 0.057372 0.352867 -2.871232
2007-03-27 08:27:24 51°13.723 2°55.712 16.5761 0.057372 0.352859 -2.871232
2007-03-27 08:27:29 51°13.726 2°55.711 16.6188 0.057372 0.352851 -2.871232
2007-03-27 08:27:34 51°13.728 2°55.711 16.6477 0.057372 0.352843 -2.871232
2007-03-27 08:27:39 51°13.73 2°55.71 16.6617 0.057372 0.352843 -2.871232
2007-03-27 08:27:44 51°13.733 2°55.709 16.6923 0.057372 0.352827 -2.871232
2007-03-27 08:27:49 51°13.736 2°55.708 16.7131 0.057372 0.352819 -2.871232
2007-03-27 08:27:54 51°13.74 2°55.706 16.7287 0.057372 0.352811 -2.871232
2007-03-27 08:27:59 51°13.743 2°55.704 16.735 0.057372 0.352803 -2.871232
2007-03-27 08:28:04 51°13.747 2°55.701 16.7152 0.057372 0.352795 -2.871232
2007-03-27 08:28:09 51°13.751 2°55.698 16.6759 0.057372 0.352795 -2.871232
2007-03-27 08:28:14 51°13.756 2°55.694 16.6411 0.057372 0.352779 -2.871232
2007-03-27 08:28:19 51°13.761 2°55.69 16.5936 0.057372 0.352763 -2.871232
2007-03-27 08:28:24 51°13.767 2°55.686 16.5092 0.057372 0.352755 -2.871232
2007-03-27 08:28:29 51°13.772 2°55.681 16.5151 0.057372 0.352739 -2.871232
2007-03-27 08:28:34 51°13.778 2°55.676 16.5356 0.057475 0.353385 -2.871232
2007-03-27 08:28:39 51°13.785 2°55.671 16.5433 0.057475 0.353385 -2.871232
2007-03-27 08:28:44 51°13.791 2°55.665 16.5471 0.057372 0.352715 -2.871232
2007-03-27 08:28:49 51°13.798 2°55.659 16.5476 0.057475 0.353352 -2.871232
2007-03-27 08:28:54 51°13.806 2°55.653 16.5521 0.057475 0.353352 -2.871232
2007-03-27 08:28:59 51°13.814 2°55.647 16.5522 0.057372 0.352682 -2.871232
2007-03-27 08:29:04 51°13.822 2°55.64 16.5415 0.057475 0.353328 -2.871232
2007-03-27 08:29:08 51°13.829 2°55.634 16.4138 0.057475 0.353328 -2.871232
2007-03-27 08:29:14 51°13.84 2°55.626 16.5062 0.057475 0.353312 -2.871232
2007-03-27 08:29:19 51°13.849 2°55.618 16.4684 0.057475 0.353304 -2.871232
2007-03-27 08:29:24 51°13.858 2°55.611 16.4416 0.057475 0.353288 -2.871232
2007-03-27 08:29:29 51°13.868 2°55.604 16.4792 0.057475 0.35328 -2.871232
2007-03-27 08:29:34 51°13.878 2°55.596 16.4418 0.057475 0.353264 -2.871232
2007-03-27 08:29:39 51°13.887 2°55.589 16.5137 0.057475 0.353264 -2.871232
2007-03-27 08:29:44 51°13.898 2°55.582 16.4209 0.057475 0.353256 -2.871232
2007-03-27 08:29:48 51°13.906 2°55.576 16.55 0.057475 0.35324 -2.871232
2007-03-27 08:29:54 51°13.918 2°55.567 16.4834 0.057475 0.353232 -2.871232
2007-03-27 08:29:59 51°13.929 2°55.559 16.485 0.057475 0.353224 -2.871232
2007-03-27 08:30:04 51°13.939 2°55.551 16.4494 0.057475 0.353216 -2.871232
2007-03-27 08:30:09 51°13.949 2°55.543 16.4861 0.057475 0.353216 -2.871232
2007-03-27 08:30:14 51°13.96 2°55.536 16.5288 0.057475 0.3532 -2.871232
2007-03-27 08:30:19 51°13.971 2°55.528 16.4829 0.057475 0.353192 -2.871232
2007-03-27 08:30:24 51°13.981 2°55.52 16.4848 0.057475 0.353184 -2.871232
2007-03-27 08:30:29 51°13.992 2°55.512 16.5612 0.057475 0.353176 -2.871232
2007-03-27 08:30:34 51°14.003 2°55.505 16.5818 0.057475 0.353168 -2.871232
2007-03-27 08:30:39 51°14.013 2°55.497 16.5687 0.057475 0.353168 -2.871232
2007-03-27 08:30:44 51°14.024 2°55.489 16.5776 0.057475 0.353159 -2.871232
2007-03-27 08:30:49 51°14.035 2°55.481 16.559 0.057475 0.353151 -2.871232
2007-03-27 08:30:54 51°14.046 2°55.473 16.5806 0.057475 0.353151 -2.871232
2007-03-27 08:30:59 51°14.057 2°55.465 16.4561 0.057475 0.353143 -2.871232
2007-03-27 08:31:04 51°14.068 2°55.457 16.5956 0.057475 0.353135 -2.871232
2007-03-27 08:31:09 51°14.079 2°55.449 16.5858 0.057475 0.353135 -2.871232
2007-03-27 08:31:14 51°14.09 2°55.441 16.5604 0.057475 0.353127 -2.871232
2007-03-27 08:31:20 51°14.103 2°55.432 16.6219 0.057475 0.353119 -2.871232
2007-03-27 08:31:25 51°14.114 2°55.424 16.5969 0.057475 0.353119 -2.871232
2007-03-27 08:31:30 51°14.125 2°55.415 16.5954 0.057475 0.353111 -2.871232
2007-03-27 08:31:35 51°14.136 2°55.407 16.5777 0.057475 0.353095 -2.871232
2007-03-27 08:31:40 51°14.146 2°55.398 16.6065 0.057475 0.353095 -2.871232
2007-03-27 08:31:45 51°14.157 2°55.389 16.5818 0.057475 0.353087 -2.871232
2007-03-27 08:31:51 51°14.17 2°55.378 16.6736 0.057475 0.353071 -2.871232
2007-03-27 08:31:56 51°14.18 2°55.368 16.6662 0.057475 0.353063 -2.871232
2007-03-27 08:32:01 51°14.191 2°55.358 16.6956 0.057475 0.353063 -2.871232
2007-03-27 08:32:06 51°14.201 2°55.347 16.657 0.057475 0.353047 -2.871232
2007-03-27 08:32:11 51°14.211 2°55.335 16.5829 0.057475 0.353047 -2.871232
2007-03-27 08:32:16 51°14.222 2°55.323 16.6359 0.057475 0.353039 -2.871232
2007-03-27 08:32:21 51°14.232 2°55.309 16.6461 0.057475 0.353031 -2.871232
2007-03-27 08:32:26 51°14.242 2°55.295 16.6276 0.057475 0.353023 -2.871232
2007-03-27 08:32:31 51°14.253 2°55.279 16.6154 0.057475 0.353015 -2.871232
2007-03-27 08:32:36 51°14.263 2°55.262 16.6299 0.057475 0.353007 -2.871232
2007-03-27 08:32:41 51°14.273 2°55.244 16.5865 0.057475 0.353007 -2.871232
2007-03-27 08:32:45 51°14.281 2°55.229 16.4855 0.057475 0.352967 -2.871232
2007-03-27 08:32:50 51°14.291 2°55.21 16.3739 0.057475 0.352935 -2.871232
2007-03-27 08:32:55 51°14.302 2°55.191 16.4955 0.057475 0.352903 -2.871232
2007-03-27 08:33:00 51°14.312 2°55.171 16.5407 0.057475 0.352887 -2.871232
2007-03-27 08:33:05 51°14.322 2°55.15 16.4794 0.057475 0.352871 -2.871232
2007-03-27 08:33:10 51°14.333 2°55.129 16.4345 0.057475 0.352871 -2.871232
2007-03-27 08:33:15 51°14.343 2°55.107 16.3675 0.057475 0.352863 -2.871232
2007-03-27 08:33:19 51°14.351 2°55.089 16.4315 0.057475 0.352863 -2.871232
2007-03-27 08:33:24 51°14.362 2°55.067 16.1364 0.057475 0.352863 -2.871232
2007-03-27 08:33:29 51°14.373 2°55.044 16.0512 0.057475 0.352871 -2.871232
2007-03-27 08:33:34 51°14.384 2°55.022 16.2268 0.057475 0.352871 -2.871232
2007-03-27 08:33:39 51°14.395 2°54.999 16.2912 0.057475 0.352871 -2.871232
2007-03-27 08:33:44 51°14.406 2°54.975 16.325 0.057475 0.352871 -2.871232
2007-03-27 08:33:49 51°14.417 2°54.952 16.2912 0.057475 0.352887 -2.871232
2007-03-27 08:33:54 51°14.427 2°54.927 16.3116 0.057475 0.352887 -2.871232
2007-03-27 08:33:59 51°14.438 2°54.903 16.2765 0.057475 0.352887 -2.871232
2007-03-27 08:34:04 51°14.448 2°54.878 16.2849 0.057578 0.353524 -2.871232
2007-03-27 08:34:09 51°14.458 2°54.852 16.2492 0.057578 0.353524 -2.871232
2007-03-27 08:34:14 51°14.467 2°54.827 16.2474 0.057578 0.353508 -2.871232
2007-03-27 08:34:19 51°14.477 2°54.801 16.2234 0.057578 0.353484 -2.871232
2007-03-27 08:34:24 51°14.486 2°54.775 16.176 0.057475 0.352815 -2.871232
2007-03-27 08:34:29 51°14.495 2°54.749 16.1582 0.057475 0.352798 -2.871232
2007-03-27 08:34:34 51°14.504 2°54.724 16.2097 0.057578 0.353443 -2.871232
2007-03-27 08:34:39 51°14.513 2°54.698 16.2174 0.057578 0.353443 -2.871232
2007-03-27 08:34:44 51°14.522 2°54.673 16.2407 0.057578 0.353435 -2.871232
2007-03-27 08:34:49 51°14.531 2°54.647 16.0827 0.057475 0.352766 -2.871232
2007-03-27 08:34:54 51°14.54 2°54.621 16.11 0.057578 0.353411 -2.871232
2007-03-27 08:34:59 51°14.548 2°54.596 16.0361 0.057578 0.353403 -2.871232
2007-03-27 08:35:04 51°14.557 2°54.57 16.1268 0.057578 0.353395 -2.871232
2007-03-27 08:35:09 51°14.565 2°54.545 16.1115 0.057578 0.353395 -2.871232
2007-03-27 08:35:14 51°14.574 2°54.519 16.1203 0.057578 0.353395 -2.871232
2007-03-27 08:35:19 51°14.583 2°54.493 16.0419 0.057578 0.353395 -2.871232
2007-03-27 08:35:24 51°14.591 2°54.468 16.1246 0.057578 0.353395 -2.871232
2007-03-27 08:35:29 51°14.6 2°54.442 16.1314 0.057578 0.353387 -2.871232
2007-03-27 08:35:34 51°14.608 2°54.417 16.1578 0.057578 0.353379 -2.871232
2007-03-27 08:35:39 51°14.616 2°54.391 16.0862 0.057578 0.353379 -2.871232
2007-03-27 08:35:44 51°14.621 2°54.364 16.0739 0.057578 0.353371 -2.871232
2007-03-27 08:35:49 51°14.626 2°54.337 16.0278 0.057578 0.353355 -2.871232
2007-03-27 08:35:54 51°14.63 2°54.309 16.0266 0.057578 0.353331 -2.871232
2007-03-27 08:35:59 51°14.634 2°54.282 16.0361 0.057578 0.353315 -2.871232
2007-03-27 08:36:04 51°14.637 2°54.254 16.0314 0.057578 0.353291 -2.871232
2007-03-27 08:36:09 51°14.64 2°54.226 16.0554 0.057578 0.353291 -2.871232
2007-03-27 08:36:14 51°14.642 2°54.198 16.0349 0.057578 0.353275 -2.871232
2007-03-27 08:36:19 51°14.644 2°54.17 16.0605 0.057578 0.353259 -2.871232
2007-03-27 08:36:24 51°14.645 2°54.142 16.0287 0.057578 0.353243 -2.871232
2007-03-27 08:36:29 51°14.647 2°54.114 16.0822 0.057578 0.353235 -2.871232
2007-03-27 08:36:35 51°14.649 2°54.08 16.0128 0.057578 0.353227 -2.871232
2007-03-27 08:36:40 51°14.651 2°54.052 16.0566 0.057578 0.353227 -2.871232
2007-03-27 08:36:45 51°14.653 2°54.024 16.0226 0.057578 0.353219 -2.871232
2007-03-27 08:36:50 51°14.655 2°53.996 16.0581 0.057578 0.353211 -2.871232
2007-03-27 08:36:55 51°14.657 2°53.968 16.0049 0.057578 0.353203 -2.871232
2007-03-27 08:37:00 51°14.659 2°53.94 16.041 0.057578 0.353195 -2.871232
2007-03-27 08:37:05 51°14.661 2°53.912 16.0717 0.057578 0.353195 -2.871232
2007-03-27 08:37:10 51°14.663 2°53.885 16.0546 0.057578 0.353195 -2.871232
2007-03-27 08:37:15 51°14.665 2°53.857 16.0496 0.057578 0.353187 -2.871232
2007-03-27 08:37:20 51°14.668 2°53.829 16.0409 0.057578 0.353179 -2.871232
2007-03-27 08:37:25 51°14.67 2°53.801 16.0177 0.057578 0.353171 -2.871232
2007-03-27 08:37:29 51°14.671 2°53.779 16.0669 0.057578 0.353163 -2.871232
2007-03-27 08:37:34 51°14.673 2°53.751 16.0684 0.057578 0.353147 -2.871232
2007-03-27 08:37:39 51°14.676 2°53.723 16.0356 0.057578 0.353147 -2.871232
2007-03-27 08:37:44 51°14.678 2°53.695 16.0639 0.057578 0.353139 -2.871232
2007-03-27 08:37:49 51°14.68 2°53.667 15.992 0.057578 0.353131 -2.871232
2007-03-27 08:37:54 51°14.682 2°53.639 16.041 0.057578 0.353123 -2.871232
2007-03-27 08:37:59 51°14.684 2°53.61 16.0512 0.057578 0.353107 -2.871232
2007-03-27 08:38:04 51°14.686 2°53.582 16.0537 0.057578 0.353091 -2.871232
2007-03-27 08:38:09 51°14.688 2°53.554 16.0039 0.057578 0.353091 -2.871232
2007-03-27 08:38:14 51°14.691 2°53.526 16.0125 0.057578 0.353082 -2.871232
2007-03-27 08:38:19 51°14.692 2°53.498 16.0382 0.057578 0.353074 -2.871232
2007-03-27 08:38:24 51°14.695 2°53.469 16.0239 0.057578 0.353058 -2.871232
2007-03-27 08:38:29 51°14.697 2°53.441 16.0271 0.057578 0.35305 -2.871232
2007-03-27 08:38:34 51°14.699 2°53.413 16.0465 0.057681 0.353687 -2.871232
2007-03-27 08:38:39 51°14.701 2°53.384 16.0002 0.057681 0.353687 -2.871232
2007-03-27 08:38:44 51°14.703 2°53.356 15.9859 0.057578 0.353018 -2.871232
2007-03-27 08:38:49 51°14.705 2°53.328 15.9893 0.057578 0.35301 -2.871232
2007-03-27 08:38:54 51°14.708 2°53.299 16.0224 0.057578 0.353002 -2.871232
2007-03-27 08:38:59 51°14.71 2°53.271 16.0095 0.057578 0.352994 -2.871232
2007-03-27 08:39:04 51°14.712 2°53.242 16.0208 0.057578 0.352978 -2.871232
2007-03-27 08:39:09 51°14.715 2°53.213 15.9704 0.057578 0.352978 -2.871232
2007-03-27 08:39:14 51°14.717 2°53.185 16.0465 0.057681 0.353622 -2.871232
2007-03-27 08:39:19 51°14.719 2°53.156 16.0243 0.057681 0.353614 -2.871232
2007-03-27 08:39:24 51°14.721 2°53.127 15.9797 0.057681 0.353606 -2.871232
2007-03-27 08:39:29 51°14.724 2°53.099 16.0206 0.057681 0.353598 -2.871232
2007-03-27 08:39:34 51°14.726 2°53.07 16.0104 0.057681 0.353582 -2.871232
2007-03-27 08:39:39 51°14.728 2°53.041 16.0067 0.057681 0.353582 -2.871232
2007-03-27 08:39:44 51°14.731 2°53.012 15.9979 0.057578 0.352922 -2.871232
2007-03-27 08:39:49 51°14.733 2°52.984 16.0229 0.057681 0.353566 -2.871232
2007-03-27 08:39:54 51°14.735 2°52.955 16.0148 0.057681 0.353558 -2.871232
2007-03-27 08:39:59 51°14.738 2°52.926 16.0233 0.057681 0.35355 -2.871232
2007-03-27 08:40:04 51°14.74 2°52.897 15.9995 0.057681 0.353542 -2.871232
2007-03-27 08:40:09 51°14.742 2°52.868 16.0071 0.057681 0.353542 -2.871232
2007-03-27 08:40:14 51°14.745 2°52.839 16.016 0.057681 0.353534 -2.871232
2007-03-27 08:40:19 51°14.748 2°52.811 15.9985 0.057681 0.353526 -2.871232
2007-03-27 08:40:24 51°14.75 2°52.782 16.0279 0.057681 0.35351 -2.871232
2007-03-27 08:40:29 51°14.753 2°52.753 16.0253 0.057681 0.353502 -2.871232
2007-03-27 08:40:34 51°14.755 2°52.724 16.0062 0.057681 0.353494 -2.871232
2007-03-27 08:40:39 51°14.757 2°52.695 15.9808 0.057681 0.353494 -2.871232
2007-03-27 08:40:44 51°14.76 2°52.666 16.0003 0.057681 0.353486 -2.871232
2007-03-27 08:40:49 51°14.763 2°52.637 15.9997 0.057681 0.353486 -2.871232
2007-03-27 08:40:54 51°14.765 2°52.608 15.9656 0.057681 0.353478 -2.871232
2007-03-27 08:40:59 51°14.767 2°52.58 16.003 0.057681 0.353462 -2.871232
2007-03-27 08:41:04 51°14.77 2°52.551 16.0151 0.057681 0.353454 -2.871232
2007-03-27 08:41:09 51°14.772 2°52.522 16.0256 0.057681 0.353454 -2.871232
2007-03-27 08:41:14 51°14.775 2°52.493 16.0006 0.057681 0.353438 -2.871232
2007-03-27 08:41:19 51°14.777 2°52.464 16.0008 0.057681 0.353422 -2.871232
2007-03-27 08:41:24 51°14.78 2°52.435 16.0074 0.057681 0.353414 -2.871232
2007-03-27 08:41:29 51°14.783 2°52.406 16.0289 0.057681 0.353414 -2.871232
2007-03-27 08:41:34 51°14.785 2°52.377 15.9977 0.057681 0.353398 -2.871232
2007-03-27 08:41:39 51°14.788 2°52.349 15.9995 0.057681 0.353398 -2.871232
2007-03-27 08:41:44 51°14.79 2°52.32 15.9815 0.057681 0.353382 -2.871232
2007-03-27 08:41:48 51°14.792 2°52.297 16.0099 0.057681 0.353374 -2.871232
2007-03-27 08:41:54 51°14.795 2°52.262 15.9719 0.057681 0.35335 -2.871232
2007-03-27 08:41:59 51°14.797 2°52.233 16.0063 0.057681 0.353342 -2.871232
2007-03-27 08:42:04 51°14.8 2°52.205 15.966 0.057681 0.353326 -2.871232
2007-03-27 08:42:09 51°14.803 2°52.176 15.9942 0.057681 0.353326 -2.871232
2007-03-27 08:42:14 51°14.805 2°52.147 15.9772 0.057681 0.353318 -2.871232
2007-03-27 08:42:19 51°14.808 2°52.119 15.9569 0.057681 0.353302 -2.871232
2007-03-27 08:42:24 51°14.811 2°52.09 15.9598 0.057681 0.353294 -2.871232
2007-03-27 08:42:29 51°14.813 2°52.061 15.9749 0.057681 0.353286 -2.871232
2007-03-27 08:42:34 51°14.816 2°52.033 15.9683 0.057681 0.35327 -2.871232
2007-03-27 08:42:39 51°14.819 2°52.004 15.9515 0.057681 0.35327 -2.871232
2007-03-27 08:42:44 51°14.821 2°51.975 15.9666 0.057681 0.35327 -2.871232
2007-03-27 08:42:49 51°14.824 2°51.947 15.9801 0.057681 0.353262 -2.871232
2007-03-27 08:42:54 51°14.826 2°51.918 15.9459 0.057681 0.353262 -2.871232
2007-03-27 08:42:59 51°14.829 2°51.89 15.9842 0.057681 0.353262 -2.871232
2007-03-27 08:43:04 51°14.832 2°51.861 15.9397 0.057681 0.353246 -2.871232
2007-03-27 08:43:09 51°14.834 2°51.832 15.9884 0.057681 0.353246 -2.871232
2007-03-27 08:43:14 51°14.837 2°51.804 15.9925 0.057681 0.353254 -2.871232
2007-03-27 08:43:19 51°14.839 2°51.775 15.9628 0.057681 0.353238 -2.871232
2007-03-27 08:43:24 51°14.842 2°51.746 15.9846 0.057681 0.35323 -2.871232
2007-03-27 08:43:29 51°14.845 2°51.717 15.9918 0.057681 0.353222 -2.871232
2007-03-27 08:43:34 51°14.848 2°51.689 15.9851 0.057681 0.353222 -2.871232
2007-03-27 08:43:39 51°14.851 2°51.66 15.9641 0.057681 0.353222 -2.871232
2007-03-27 08:43:44 51°14.854 2°51.631 15.9744 0.057681 0.353206 -2.871232
2007-03-27 08:43:49 51°14.856 2°51.603 15.9361 0.057681 0.353198 -2.871232
2007-03-27 08:43:54 51°14.859 2°51.574 15.9483 0.057681 0.35319 -2.871232
2007-03-27 08:43:59 51°14.862 2°51.545 15.9382 0.057784 0.353825 -2.871232
2007-03-27 08:44:04 51°14.864 2°51.516 15.9908 0.057681 0.353166 -2.871232
2007-03-27 08:44:09 51°14.867 2°51.488 15.9435 0.057681 0.353166 -2.871232
2007-03-27 08:44:14 51°14.869 2°51.459 15.9726 0.057681 0.353158 -2.871232
2007-03-27 08:44:19 51°14.872 2°51.431 15.9622 0.057681 0.353142 -2.871232
2007-03-27 08:44:24 51°14.875 2°51.402 15.9579 0.057784 0.353785 -2.871232
2007-03-27 08:44:29 51°14.879 2°51.373 15.9804 0.057681 0.353118 -2.871232
2007-03-27 08:44:34 51°14.884 2°51.345 15.9728 0.057681 0.35311 -2.871232
2007-03-27 08:44:39 51°14.889 2°51.317 16.0047 0.057681 0.35311 -2.871232
2007-03-27 08:44:44 51°14.895 2°51.29 15.9879 0.057784 0.353753 -2.871232
2007-03-27 08:44:49 51°14.901 2°51.262 16.0022 0.057784 0.353745 -2.871232
2007-03-27 08:44:54 51°14.907 2°51.235 15.9913 0.057784 0.353737 -2.871232
2007-03-27 08:44:59 51°14.914 2°51.208 15.9951 0.057784 0.353729 -2.871232
2007-03-27 08:45:04 51°14.921 2°51.181 16.0002 0.057784 0.353721 -2.871232
2007-03-27 08:45:09 51°14.928 2°51.153 15.9713 0.057784 0.353721 -2.871232
2007-03-27 08:45:14 51°14.935 2°51.126 15.9668 0.057784 0.353713 -2.871232
2007-03-27 08:45:19 51°14.941 2°51.099 15.9649 0.057784 0.353705 -2.871232
2007-03-27 08:45:24 51°14.948 2°51.072 15.9805 0.057784 0.353697 -2.871232
2007-03-27 08:45:29 51°14.955 2°51.045 15.9706 0.057784 0.353689 -2.871232
2007-03-27 08:45:34 51°14.961 2°51.017 15.9776 0.057784 0.353681 -2.871232
2007-03-27 08:45:39 51°14.968 2°50.99 15.9403 0.057784 0.353681 -2.871232
2007-03-27 08:45:44 51°14.974 2°50.963 15.9518 0.057784 0.353673 -2.871232
2007-03-27 08:45:49 51°14.981 2°50.935 15.9729 0.057784 0.353665 -2.871232
2007-03-27 08:45:54 51°14.987 2°50.908 15.9652 0.057784 0.353657 -2.871232
2007-03-27 08:45:59 51°14.993 2°50.88 15.9566 0.057784 0.353649 -2.871232
2007-03-27 08:46:04 51°15 2°50.853 15.9538 0.057784 0.353649 -2.871232
2007-03-27 08:46:09 51°15.006 2°50.826 15.9627 0.057784 0.353649 -2.871232
2007-03-27 08:46:14 51°15.012 2°50.798 15.9691 0.057784 0.353641 -2.871232
2007-03-27 08:46:19 51°15.018 2°50.771 15.9734 0.057784 0.353633 -2.871232
2007-03-27 08:46:24 51°15.024 2°50.743 15.9703 0.057784 0.353625 -2.871232
2007-03-27 08:46:28 51°15.029 2°50.721 15.9715 0.057784 0.353617 -2.871232
2007-03-27 08:46:34 51°15.036 2°50.688 15.9698 0.057784 0.353609 -2.871232
2007-03-27 08:46:39 51°15.042 2°50.661 15.9683 0.057784 0.353609 -2.871232
2007-03-27 08:46:44 51°15.048 2°50.634 15.9627 0.057784 0.353593 -2.871232
2007-03-27 08:46:49 51°15.055 2°50.606 15.9579 0.057784 0.353593 -2.871232
2007-03-27 08:46:54 51°15.06 2°50.578 15.9496 0.057784 0.353585 -2.871232
2007-03-27 08:46:59 51°15.067 2°50.551 15.9543 0.057784 0.353577 -2.871232
2007-03-27 08:47:04 51°15.073 2°50.523 15.9612 0.057784 0.353561 -2.871232
2007-03-27 08:47:09 51°15.079 2°50.496 15.9575 0.057784 0.353561 -2.871232
2007-03-27 08:47:14 51°15.085 2°50.469 15.9756 0.057784 0.353553 -2.871232
2007-03-27 08:47:19 51°15.091 2°50.441 15.9582 0.057784 0.353545 -2.871232
2007-03-27 08:47:24 51°15.097 2°50.414 15.9659 0.057784 0.353529 -2.871232
2007-03-27 08:47:29 51°15.104 2°50.387 15.9672 0.057784 0.353521 -2.871232
2007-03-27 08:47:34 51°15.109 2°50.359 15.9575 0.057784 0.353513 -2.871232
2007-03-27 08:47:39 51°15.116 2°50.332 15.9724 0.057784 0.353513 -2.871232
2007-03-27 08:47:44 51°15.122 2°50.305 15.9604 0.057784 0.353505 -2.871232
2007-03-27 08:47:49 51°15.128 2°50.278 15.962 0.057784 0.353497 -2.871232
2007-03-27 08:47:54 51°15.134 2°50.251 15.9577 0.057784 0.353489 -2.871232
2007-03-27 08:47:59 51°15.14 2°50.224 15.9543 0.057784 0.353481 -2.871232
2007-03-27 08:48:04 51°15.146 2°50.196 15.9536 0.057784 0.353473 -2.871232
2007-03-27 08:48:09 51°15.152 2°50.169 15.9562 0.057784 0.353473 -2.871232
2007-03-27 08:48:14 51°15.158 2°50.142 15.9359 0.057784 0.353465 -2.871232
2007-03-27 08:48:19 51°15.164 2°50.115 15.9669 0.057784 0.353457 -2.871232
2007-03-27 08:48:24 51°15.17 2°50.087 15.9347 0.057784 0.353457 -2.871232
2007-03-27 08:48:29 51°15.176 2°50.06 15.9746 0.057784 0.353441 -2.871232
2007-03-27 08:48:34 51°15.182 2°50.033 15.9483 0.057784 0.353433 -2.871232
2007-03-27 08:48:39 51°15.187 2°50.006 15.9548 0.057784 0.353433 -2.871232
2007-03-27 08:48:44 51°15.193 2°49.978 15.9522 0.057784 0.353425 -2.871232
2007-03-27 08:48:49 51°15.199 2°49.951 15.9476 0.057784 0.353417 -2.871232
2007-03-27 08:48:54 51°15.205 2°49.924 15.9576 0.057784 0.353409 -2.871232
2007-03-27 08:48:59 51°15.211 2°49.896 15.9528 0.057887 0.354052 -2.871232
2007-03-27 08:49:04 51°15.217 2°49.869 15.955 0.057784 0.353385 -2.871232
2007-03-27 08:49:09 51°15.223 2°49.841 15.9547 0.057784 0.353385 -2.871232
2007-03-27 08:49:14 51°15.228 2°49.814 15.9503 0.057887 0.354028 -2.871232
2007-03-27 08:49:19 51°15.234 2°49.787 15.9471 0.057784 0.353369 -2.871232
2007-03-27 08:49:24 51°15.24 2°49.759 15.9497 0.057887 0.354004 -2.871232
2007-03-27 08:49:28 51°15.245 2°49.738 15.9493 0.057887 0.353996 -2.871232
2007-03-27 08:49:34 51°15.252 2°49.705 15.9527 0.057887 0.35398 -2.871232
2007-03-27 08:49:39 51°15.257 2°49.677 15.9706 0.057887 0.35398 -2.871232
2007-03-27 08:49:44 51°15.263 2°49.65 15.9638 0.057784 0.353321 -2.871232
2007-03-27 08:49:49 51°15.269 2°49.623 15.9785 0.057887 0.353964 -2.871232
2007-03-27 08:49:54 51°15.275 2°49.595 15.9547 0.057887 0.353948 -2.871232
2007-03-27 08:49:59 51°15.281 2°49.568 15.9632 0.057887 0.35394 -2.871232
2007-03-27 08:50:04 51°15.287 2°49.541 15.9682 0.057887 0.353932 -2.871232
2007-03-27 08:50:09 51°15.293 2°49.514 15.9673 0.057887 0.353932 -2.871232
2007-03-27 08:50:14 51°15.299 2°49.486 15.9814 0.057887 0.353924 -2.871232
2007-03-27 08:50:19 51°15.305 2°49.459 15.9829 0.057887 0.353916 -2.871232
2007-03-27 08:50:24 51°15.311 2°49.432 15.9803 0.057887 0.353908 -2.871232
2007-03-27 08:50:29 51°15.317 2°49.405 15.9677 0.057887 0.3539 -2.871232
2007-03-27 08:50:34 51°15.323 2°49.378 15.9818 0.057887 0.353892 -2.871232
2007-03-27 08:50:39 51°15.329 2°49.351 15.9662 0.057887 0.353892 -2.871232
2007-03-27 08:50:44 51°15.335 2°49.324 15.9737 0.057887 0.353884 -2.871232
2007-03-27 08:50:49 51°15.341 2°49.297 15.9726 0.057887 0.353884 -2.871232
2007-03-27 08:50:54 51°15.347 2°49.27 15.981 0.057887 0.353868 -2.871232
2007-03-27 08:50:59 51°15.353 2°49.243 15.9713 0.057887 0.35386 -2.871232
2007-03-27 08:51:04 51°15.359 2°49.216 15.9489 0.057887 0.353852 -2.871232
2007-03-27 08:51:09 51°15.365 2°49.188 15.9763 0.057887 0.353852 -2.871232
2007-03-27 08:51:14 51°15.371 2°49.161 15.9703 0.057887 0.353852 -2.871232
2007-03-27 08:51:19 51°15.377 2°49.134 15.985 0.057887 0.353852 -2.871232
2007-03-27 08:51:24 51°15.383 2°49.107 15.9865 0.057887 0.353844 -2.871232
2007-03-27 08:51:29 51°15.389 2°49.08 15.9882 0.057887 0.353836 -2.871232
2007-03-27 08:51:34 51°15.395 2°49.053 15.9886 0.057887 0.353828 -2.871232